GEFSNGP_prec_meanprecacc_132.txt.gz
Total_Precipitation_Accumulation
0.16 0.16 0.24 0.43 0.56 0.51 0.53 0.60 0.84 0.76 0.60 0.54 0.51 0.53 0.54 0.56 0.56 0.52 0.56 0.56 0.55 0.55 0.56 0.63 0.63 0.61 0.65 0.72 0.83 0.98 1.05 0.94 0.80 0.68 0.58 0.53 0.56 0.53 0.54 0.61 0.64 0.71 0.76 0.87
0.04 0.06 0.15 0.37 0.49 0.52 0.52 0.48 0.47 0.42 0.40 0.30 0.29 0.34 0.33 0.32 0.33 0.32 0.32 0.33 0.31 0.28 0.28 0.33 0.33 0.35 0.39 0.47 0.62 0.85 0.93 0.81 0.64 0.56 0.53 0.49 0.48 0.45 0.44 0.47 0.53 0.58 0.64 0.80
0.05 0.06 0.14 0.38 0.42 0.46 0.35 0.20 0.17 0.23 0.24 0.17 0.18 0.26 0.26 0.27 0.29 0.25 0.23 0.23 0.24 0.22 0.20 0.20 0.20 0.23 0.31 0.37 0.50 0.60 0.62 0.58 0.47 0.41 0.40 0.39 0.38 0.38 0.41 0.43 0.47 0.52 0.56 0.73
0.09 0.12 0.33 0.59 0.46 0.39 0.31 0.16 0.10 0.11 0.11 0.12 0.16 0.20 0.19 0.22 0.27 0.24 0.20 0.21 0.21 0.21 0.20 0.21 0.22 0.23 0.33 0.37 0.39 0.45 0.52 0.50 0.44 0.39 0.36 0.36 0.34 0.36 0.44 0.45 0.44 0.49 0.55 0.59
0.16 0.19 0.37 0.46 0.31 0.26 0.34 0.33 0.12 0.08 0.08 0.10 0.11 0.15 0.13 0.13 0.17 0.17 0.14 0.13 0.13 0.13 0.12 0.12 0.12 0.11 0.13 0.17 0.22 0.27 0.30 0.35 0.34 0.29 0.30 0.34 0.34 0.39 0.43 0.44 0.48 0.50 0.55 0.58
0.23 0.25 0.37 0.31 0.14 0.11 0.23 0.43 0.17 0.06 0.05 0.04 0.05 0.08 0.06 0.06 0.06 0.05 0.04 0.03 0.03 0.03 0.03 0.03 0.02 0.03 0.04 0.05 0.06 0.09 0.10 0.14 0.18 0.19 0.23 0.29 0.38 0.44 0.42 0.41 0.46 0.48 0.47 0.47
0.37 0.47 0.62 0.42 0.18 0.13 0.30 0.40 0.15 0.04 0.01 0.01 0.01 0.02 0.02 0.03 0.03 0.01 0.00 0.00 0.00 0.00 0.01 0.01 0.01 0.01 0.02 0.02 0.02 0.02 0.02 0.04 0.07 0.11 0.17 0.25 0.33 0.32 0.33 0.36 0.39 0.41 0.44 0.43
0.55 0.71 0.88 0.57 0.34 0.30 0.27 0.14 0.06 0.01 0.00 0.00 0.00 0.00 0.01 0.02 0.02 0.01 0.00 0.00 0.00 0.00 0.00 0.00 0.00 0.00 0.00 0.00 0.00 0.00 0.01 0.01 0.02 0.04 0.07 0.12 0.20 0.23 0.26 0.30 0.32 0.32 0.32 0.33
0.60 0.62 0.57 0.41 0.30 0.20 0.15 0.09 0.02 0.00 0.00 0.00 0.00 0.00 0.00 0.01 0.01 0.01 0.00 0.00 0.00 0.00 0.00 0.00 0.00 0.00 0.00 0.00 0.00 0.00 0.00 0.00 0.00 0.01 0.02 0.06 0.12 0.17 0.21 0.27 0.29 0.28 0.26 0.28
0.18 0.21 0.19 0.16 0.11 0.07 0.06 0.05 0.01 0.00 0.00 0.00 0.00 0.00 0.00 0.00 0.01 0.01 0.00 0.00 0.00 0.00 0.00 0.00 0.00 0.00 0.00 0.00 0.00 0.00 0.00 0.00 0.00 0.01 0.01 0.03 0.06 0.13 0.21 0.24 0.23 0.24 0.26 0.28
0.04 0.05 0.06 0.07 0.05 0.03 0.03 0.02 0.01 0.00 0.00 0.00 0.00 0.00 0.00 0.00 0.01 0.01 0.01 0.00 0.00 0.00 0.00 0.00 0.00 0.00 0.00 0.00 0.00 0.00 0.00 0.00 0.00 0.01 0.01 0.02 0.02 0.06 0.13 0.15 0.15 0.18 0.23 0.28
0.01 0.01 0.02 0.04 0.02 0.01 0.02 0.01 0.00 0.00 0.00 0.00 0.00 0.00 0.00 0.00 0.00 0.01 0.01 0.00 0.00 0.00 0.00 0.00 0.00 0.00 0.00 0.00 0.00 0.00 0.00 0.00 0.00 0.01 0.02 0.02 0.02 0.03 0.05 0.06 0.08 0.09 0.10 0.14
0.01 0.00 0.00 0.01 0.01 0.00 0.01 0.00 0.00 0.00 0.00 0.00 0.00 0.00 0.00 0.00 0.00 0.01 0.01 0.00 0.00 0.00 0.00 0.00 0.00 0.00 0.00 0.00 0.00 0.00 0.00 0.00 0.01 0.01 0.01 0.01 0.03 0.05 0.05 0.04 0.02 0.02 0.03 0.04
0.00 0.00 0.00 0.00 0.00 0.00 0.00 0.00 0.00 0.00 0.00 0.00 0.00 0.00 0.00 0.00 0.00 0.00 0.00 0.00 0.00 0.00 0.00 0.00 0.00 0.00 0.00 0.00 0.00 0.01 0.01 0.01 0.01 0.02 0.02 0.03 0.04 0.08 0.13 0.16 0.12 0.05 0.03 0.02
0.00 0.00 0.01 0.01 0.00 0.00 0.00 0.00 0.00 0.00 0.00 0.00 0.00 0.00 0.00 0.00 0.00 0.00 0.00 0.00 0.00 0.00 0.00 0.00 0.00 0.00 0.00 0.01 0.00 0.01 0.01 0.02 0.02 0.05 0.05 0.05 0.07 0.11 0.14 0.14 0.11 0.07 0.04 0.03
0.00 0.01 0.01 0.01 0.01 0.00 0.00 0.00 0.00 0.00 0.00 0.00 0.00 0.00 0.00 0.00 0.00 0.00 0.00 0.00 0.00 0.00 0.00 0.00 0.00 0.00 0.00 0.00 0.00 0.01 0.01 0.01 0.02 0.05 0.06 0.05 0.05 0.07 0.10 0.10 0.07 0.06 0.06 0.06
0.01 0.01 0.01 0.01 0.00 0.00 0.00 0.00 0.00 0.00 0.00 0.00 0.00 0.00 0.00 0.00 0.00 0.00 0.00 0.00 0.00 0.00 0.00 0.00 0.00 0.00 0.00 0.00 0.00 0.01 0.01 0.01 0.02 0.03 0.06 0.05 0.05 0.04 0.05 0.07 0.06 0.06 0.05 0.04
0.02 0.01 0.01 0.01 0.01 0.00 0.00 0.00 0.00 0.00 0.00 0.00 0.00 0.00 0.00 0.00 0.00 0.00 0.00 0.00 0.00 0.00 0.00 0.00 0.00 0.00 0.00 0.00 0.01 0.01 0.01 0.01 0.02 0.05 0.07 0.07 0.06 0.05 0.06 0.07 0.06 0.06 0.06 0.06
0.02 0.02 0.01 0.01 0.01 0.01 0.00 0.00 0.00 0.00 0.00 0.00 0.00 0.00 0.00 0.00 0.01 0.01 0.01 0.01 0.01 0.02 0.02 0.01 0.01 0.01 0.01 0.01 0.01 0.01 0.01 0.01 0.02 0.04 0.06 0.06 0.06 0.06 0.06 0.07 0.08 0.07 0.07 0.07
0.04 0.03 0.03 0.02 0.01 0.01 0.01 0.01 0.00 0.00 0.00 0.00 0.00 0.01 0.01 0.01 0.01 0.01 0.01 0.01 0.02 0.02 0.03 0.04 0.04 0.03 0.03 0.03 0.03 0.03 0.04 0.04 0.05 0.06 0.06 0.07 0.08 0.08 0.08 0.08 0.08 0.08 0.09 0.10
0.04 0.03 0.03 0.02 0.01 0.01 0.01 0.01 0.01 0.01 0.01 0.01 0.02 0.02 0.02 0.02 0.01 0.01 0.01 0.00 0.00 0.01 0.02 0.03 0.05 0.05 0.06 0.07 0.07 0.07 0.07 0.07 0.08 0.08 0.09 0.09 0.08 0.08 0.09 0.09 0.10 0.10 0.11 0.11
0.02 0.02 0.02 0.02 0.01 0.01 0.01 0.01 0.01 0.01 0.02 0.03 0.03 0.03 0.02 0.01 0.01 0.01 0.01 0.01 0.01 0.01 0.02 0.03 0.04 0.04 0.07 0.08 0.07 0.07 0.07 0.07 0.07 0.08 0.09 0.10 0.11 0.12 0.13 0.14 0.14 0.13 0.13 0.14
0.02 0.02 0.02 0.02 0.02 0.02 0.02 0.02 0.02 0.02 0.03 0.04 0.04 0.03 0.03 0.03 0.03 0.03 0.03 0.03 0.02 0.03 0.03 0.03 0.04 0.06 0.09 0.07 0.05 0.05 0.05 0.05 0.06 0.07 0.08 0.10 0.12 0.14 0.15 0.15 0.16 0.17 0.18 0.18
0.04 0.03 0.03 0.03 0.03 0.03 0.03 0.03 0.03 0.04 0.05 0.06 0.06 0.06 0.06 0.07 0.07 0.07 0.06 0.06 0.06 0.06 0.05 0.05 0.06 0.10 0.11 0.06 0.06 0.06 0.06 0.06 0.07 0.07 0.08 0.10 0.11 0.13 0.15 0.17 0.18 0.19 0.20 0.23
0.04 0.03 0.03 0.03 0.03 0.03 0.03 0.03 0.03 0.03 0.04 0.05 0.06 0.07 0.07 0.07 0.08 0.10 0.10 0.09 0.10 0.11 0.11 0.12 0.13 0.15 0.13 0.10 0.10 0.10 0.10 0.10 0.11 0.11 0.11 0.12 0.14 0.15 0.18 0.21 0.23 0.23 0.24 0.26
0.05 0.04 0.03 0.03 0.03 0.04 0.04 0.04 0.04 0.03 0.04 0.04 0.04 0.06 0.07 0.07 0.08 0.10 0.11 0.12 0.14 0.15 0.16 0.17 0.17 0.17 0.16 0.16 0.15 0.15 0.16 0.16 0.16 0.15 0.15 0.15 0.16 0.17 0.19 0.21 0.25 0.28 0.30 0.31
0.06 0.05 0.04 0.04 0.04 0.04 0.04 0.04 0.05 0.05 0.06 0.05 0.05 0.06 0.07 0.07 0.07 0.08 0.10 0.12 0.14 0.17 0.19 0.20 0.20 0.20 0.19 0.19 0.20 0.20 0.19 0.18 0.19 0.19 0.20 0.21 0.21 0.22 0.22 0.24 0.26 0.28 0.30 0.32

GEFSNGP_prec_meanprecacc_138.txt.gz
Total_Precipitation_Accumulation
0.16 0.16 0.24 0.43 0.56 0.51 0.54 0.61 0.84 0.76 0.60 0.54 0.51 0.53 0.54 0.56 0.56 0.52 0.56 0.56 0.55 0.55 0.56 0.63 0.63 0.61 0.65 0.72 0.83 0.98 1.05 0.94 0.80 0.68 0.58 0.53 0.56 0.53 0.54 0.61 0.64 0.71 0.76 0.87
0.04 0.06 0.15 0.37 0.49 0.52 0.52 0.48 0.47 0.42 0.40 0.30 0.29 0.34 0.33 0.32 0.33 0.32 0.32 0.33 0.31 0.28 0.28 0.33 0.33 0.35 0.39 0.47 0.62 0.85 0.93 0.81 0.64 0.56 0.53 0.49 0.48 0.45 0.44 0.47 0.53 0.58 0.64 0.80
0.05 0.06 0.14 0.38 0.42 0.46 0.35 0.20 0.17 0.23 0.24 0.17 0.18 0.26 0.26 0.27 0.29 0.25 0.23 0.23 0.24 0.22 0.20 0.20 0.20 0.23 0.31 0.37 0.50 0.60 0.62 0.58 0.47 0.41 0.40 0.39 0.38 0.38 0.41 0.43 0.47 0.52 0.56 0.73
0.09 0.12 0.33 0.59 0.46 0.39 0.31 0.16 0.10 0.11 0.11 0.12 0.16 0.20 0.19 0.22 0.27 0.24 0.20 0.21 0.21 0.21 0.20 0.21 0.22 0.23 0.33 0.37 0.39 0.45 0.52 0.51 0.44 0.39 0.36 0.36 0.34 0.36 0.44 0.45 0.44 0.49 0.55 0.59
0.17 0.20 0.37 0.46 0.31 0.26 0.34 0.33 0.12 0.08 0.08 0.10 0.11 0.15 0.13 0.13 0.17 0.17 0.14 0.13 0.13 0.13 0.12 0.12 0.12 0.11 0.13 0.17 0.22 0.27 0.30 0.35 0.34 0.29 0.31 0.34 0.34 0.39 0.43 0.44 0.48 0.50 0.55 0.58
0.23 0.26 0.37 0.31 0.14 0.11 0.23 0.43 0.17 0.06 0.05 0.04 0.05 0.08 0.06 0.06 0.06 0.05 0.04 0.03 0.03 0.03 0.03 0.03 0.02 0.03 0.04 0.05 0.06 0.09 0.10 0.14 0.19 0.19 0.23 0.29 0.38 0.44 0.42 0.41 0.47 0.48 0.47 0.47
0.37 0.47 0.62 0.42 0.18 0.13 0.30 0.40 0.15 0.04 0.01 0.01 0.01 0.02 0.02 0.03 0.03 0.01 0.00 0.00 0.00 0.00 0.01 0.01 0.01 0.01 0.02 0.02 0.02 0.02 0.02 0.04 0.07 0.11 0.17 0.26 0.33 0.32 0.33 0.36 0.39 0.41 0.44 0.44
0.55 0.71 0.88 0.57 0.34 0.30 0.27 0.14 0.06 0.01 0.00 0.00 0.00 0.00 0.01 0.02 0.02 0.01 0.00 0.00 0.00 0.00 0.00 0.00 0.00 0.00 0.00 0.00 0.00 0.00 0.01 0.01 0.02 0.04 0.07 0.12 0.20 0.23 0.26 0.30 0.32 0.32 0.33 0.34
0.60 0.62 0.57 0.41 0.30 0.20 0.15 0.09 0.02 0.00 0.00 0.00 0.00 0.00 0.00 0.01 0.01 0.01 0.00 0.00 0.00 0.00 0.00 0.00 0.00 0.00 0.00 0.00 0.00 0.00 0.00 0.00 0.00 0.01 0.02 0.06 0.12 0.17 0.21 0.27 0.30 0.28 0.26 0.28
0.18 0.21 0.19 0.16 0.11 0.07 0.06 0.05 0.01 0.00 0.00 0.00 0.00 0.00 0.00 0.00 0.01 0.01 0.00 0.00 0.00 0.00 0.00 0.00 0.00 0.00 0.00 0.00 0.00 0.00 0.00 0.00 0.00 0.01 0.01 0.03 0.06 0.13 0.21 0.24 0.23 0.24 0.26 0.28
0.04 0.05 0.06 0.07 0.05 0.03 0.03 0.02 0.01 0.00 0.00 0.00 0.00 0.00 0.00 0.00 0.01 0.01 0.01 0.00 0.00 0.00 0.00 0.00 0.00 0.00 0.00 0.00 0.00 0.00 0.00 0.00 0.00 0.01 0.02 0.02 0.02 0.06 0.13 0.15 0.15 0.18 0.23 0.28
0.01 0.01 0.02 0.04 0.02 0.01 0.02 0.01 0.00 0.00 0.00 0.00 0.00 0.00 0.00 0.00 0.00 0.01 0.01 0.00 0.00 0.00 0.00 0.00 0.00 0.00 0.00 0.00 0.00 0.00 0.00 0.00 0.01 0.01 0.02 0.02 0.02 0.04 0.06 0.06 0.08 0.09 0.10 0.14
0.01 0.00 0.00 0.01 0.01 0.00 0.01 0.00 0.00 0.00 0.00 0.00 0.00 0.00 0.00 0.00 0.00 0.01 0.01 0.00 0.00 0.00 0.00 0.00 0.00 0.00 0.00 0.00 0.00 0.00 0.00 0.00 0.01 0.01 0.02 0.02 0.03 0.06 0.06 0.04 0.03 0.02 0.03 0.04
0.00 0.00 0.00 0.00 0.00 0.00 0.00 0.00 0.00 0.00 0.00 0.00 0.00 0.00 0.00 0.00 0.00 0.00 0.00 0.00 0.00 0.00 0.00 0.00 0.00 0.00 0.00 0.00 0.00 0.01 0.01 0.01 0.01 0.02 0.03 0.03 0.05 0.08 0.14 0.17 0.13 0.05 0.03 0.03
0.00 0.00 0.01 0.01 0.00 0.00 0.00 0.00 0.00 0.00 0.00 0.00 0.00 0.00 0.00 0.00 0.00 0.00 0.00 0.00 0.00 0.00 0.00 0.00 0.00 0.00 0.00 0.01 0.00 0.01 0.01 0.02 0.02 0.05 0.05 0.06 0.07 0.12 0.15 0.15 0.11 0.07 0.05 0.04
0.00 0.01 0.01 0.01 0.01 0.00 0.00 0.00 0.00 0.00 0.00 0.00 0.00 0.00 0.00 0.00 0.00 0.00 0.00 0.00 0.00 0.00 0.00 0.00 0.00 0.00 0.00 0.00 0.00 0.01 0.01 0.01 0.02 0.05 0.06 0.05 0.06 0.08 0.10 0.10 0.08 0.07 0.07 0.06
0.01 0.01 0.01 0.01 0.00 0.00 0.00 0.00 0.00 0.00 0.00 0.00 0.00 0.00 0.00 0.00 0.00 0.00 0.00 0.00 0.00 0.00 0.00 0.00 0.00 0.00 0.00 0.00 0.00 0.01 0.01 0.01 0.02 0.03 0.06 0.06 0.06 0.05 0.06 0.08 0.07 0.06 0.06 0.05
0.02 0.01 0.01 0.01 0.01 0.00 0.00 0.00 0.00 0.00 0.00 0.00 0.00 0.00 0.00 0.00 0.00 0.00 0.00 0.00 0.00 0.00 0.00 0.00 0.00 0.00 0.00 0.00 0.01 0.01 0.01 0.01 0.02 0.05 0.07 0.07 0.07 0.06 0.07 0.08 0.07 0.06 0.07 0.07
0.02 0.02 0.01 0.01 0.01 0.01 0.00 0.00 0.00 0.00 0.00 0.00 0.00 0.00 0.00 0.00 0.01 0.01 0.01 0.01 0.01 0.02 0.02 0.01 0.01 0.01 0.01 0.01 0.01 0.01 0.01 0.02 0.02 0.04 0.06 0.06 0.07 0.07 0.07 0.08 0.09 0.08 0.08 0.08
0.04 0.03 0.03 0.02 0.01 0.01 0.01 0.01 0.00 0.00 0.00 0.00 0.00 0.01 0.01 0.01 0.01 0.01 0.01 0.01 0.02 0.02 0.03 0.04 0.04 0.03 0.03 0.03 0.03 0.03 0.04 0.05 0.05 0.07 0.07 0.07 0.08 0.09 0.09 0.08 0.09 0.09 0.10 0.11
0.04 0.03 0.03 0.02 0.01 0.01 0.01 0.01 0.01 0.01 0.01 0.01 0.02 0.02 0.02 0.02 0.01 0.01 0.01 0.00 0.01 0.01 0.02 0.03 0.05 0.05 0.06 0.07 0.08 0.07 0.07 0.08 0.08 0.09 0.09 0.09 0.09 0.10 0.10 0.10 0.11 0.12 0.13 0.13
0.02 0.02 0.02 0.02 0.01 0.01 0.01 0.01 0.01 0.01 0.02 0.03 0.03 0.03 0.02 0.02 0.01 0.01 0.01 0.01 0.01 0.02 0.02 0.03 0.04 0.05 0.07 0.09 0.08 0.08 0.08 0.08 0.08 0.09 0.10 0.11 0.12 0.13 0.14 0.15 0.16 0.15 0.15 0.15
0.02 0.02 0.02 0.02 0.02 0.02 0.02 0.02 0.02 0.02 0.03 0.04 0.04 0.03 0.03 0.03 0.03 0.03 0.03 0.03 0.02 0.03 0.03 0.03 0.04 0.07 0.09 0.07 0.05 0.05 0.05 0.06 0.07 0.08 0.09 0.12 0.14 0.15 0.16 0.17 0.18 0.18 0.19 0.20
0.04 0.03 0.03 0.03 0.03 0.03 0.03 0.03 0.04 0.04 0.05 0.06 0.06 0.06 0.06 0.07 0.07 0.07 0.07 0.06 0.06 0.06 0.05 0.05 0.07 0.11 0.11 0.07 0.06 0.06 0.06 0.07 0.08 0.08 0.09 0.11 0.13 0.14 0.17 0.19 0.20 0.20 0.22 0.25
0.04 0.03 0.03 0.03 0.03 0.03 0.03 0.03 0.03 0.03 0.04 0.05 0.06 0.07 0.07 0.07 0.09 0.10 0.10 0.10 0.10 0.11 0.12 0.12 0.14 0.15 0.13 0.11 0.10 0.11 0.11 0.11 0.12 0.13 0.13 0.14 0.16 0.18 0.20 0.23 0.25 0.26 0.27 0.28
0.05 0.04 0.03 0.03 0.03 0.04 0.04 0.04 0.04 0.04 0.04 0.04 0.05 0.06 0.07 0.07 0.08 0.10 0.12 0.13 0.14 0.16 0.16 0.17 0.17 0.18 0.17 0.17 0.16 0.16 0.17 0.17 0.18 0.18 0.17 0.19 0.19 0.20 0.22 0.24 0.28 0.32 0.34 0.34
0.06 0.05 0.04 0.04 0.05 0.04 0.05 0.05 0.05 0.06 0.06 0.06 0.06 0.06 0.07 0.07 0.07 0.08 0.10 0.12 0.15 0.18 0.20 0.20 0.21 0.21 0.20 0.20 0.21 0.22 0.22 0.22 0.21 0.22 0.22 0.24 0.25 0.26 0.26 0.28 0.31 0.33 0.35 0.36

GEFSNGP_prec_meanprecacc_144.txt.gz
Total_Precipitation_Accumulation
0.18 0.18 0.25 0.44 0.57 0.52 0.55 0.63 0.86 0.76 0.61 0.55 0.51 0.54 0.55 0.56 0.57 0.53 0.58 0.57 0.56 0.55 0.57 0.63 0.63 0.61 0.65 0.72 0.83 0.98 1.05 0.94 0.80 0.68 0.58 0.53 0.56 0.53 0.54 0.61 0.64 0.71 0.76 0.87
0.04 0.07 0.15 0.38 0.49 0.52 0.53 0.49 0.49 0.42 0.40 0.30 0.29 0.34 0.34 0.32 0.34 0.33 0.33 0.33 0.31 0.28 0.28 0.33 0.33 0.35 0.39 0.47 0.62 0.85 0.93 0.81 0.64 0.56 0.53 0.49 0.48 0.45 0.44 0.47 0.53 0.58 0.64 0.80
0.05 0.07 0.14 0.39 0.42 0.47 0.35 0.21 0.18 0.23 0.24 0.17 0.19 0.27 0.26 0.27 0.29 0.25 0.23 0.24 0.24 0.22 0.20 0.20 0.20 0.23 0.31 0.37 0.50 0.60 0.63 0.58 0.47 0.41 0.40 0.39 0.38 0.38 0.41 0.43 0.47 0.52 0.56 0.73
0.09 0.12 0.34 0.59 0.46 0.39 0.31 0.17 0.10 0.11 0.11 0.12 0.16 0.21 0.20 0.22 0.27 0.24 0.20 0.21 0.21 0.21 0.20 0.21 0.22 0.23 0.33 0.37 0.39 0.45 0.52 0.51 0.44 0.39 0.36 0.36 0.34 0.36 0.44 0.45 0.44 0.49 0.55 0.59
0.17 0.20 0.37 0.46 0.31 0.26 0.34 0.33 0.12 0.08 0.08 0.10 0.12 0.15 0.13 0.14 0.18 0.17 0.14 0.13 0.13 0.13 0.12 0.12 0.12 0.11 0.13 0.17 0.22 0.27 0.30 0.35 0.34 0.29 0.31 0.34 0.34 0.39 0.43 0.44 0.48 0.50 0.55 0.58
0.24 0.26 0.38 0.31 0.14 0.11 0.23 0.43 0.17 0.06 0.05 0.04 0.05 0.09 0.06 0.06 0.06 0.06 0.04 0.03 0.03 0.03 0.03 0.03 0.03 0.03 0.04 0.05 0.06 0.09 0.10 0.14 0.19 0.19 0.23 0.29 0.38 0.44 0.42 0.41 0.47 0.48 0.47 0.47
0.38 0.48 0.62 0.42 0.18 0.13 0.30 0.40 0.15 0.04 0.01 0.01 0.01 0.02 0.02 0.03 0.03 0.02 0.01 0.01 0.01 0.01 0.01 0.01 0.01 0.01 0.02 0.02 0.02 0.02 0.02 0.04 0.07 0.11 0.17 0.26 0.33 0.32 0.33 0.36 0.40 0.41 0.44 0.44
0.55 0.71 0.89 0.57 0.34 0.30 0.27 0.14 0.06 0.01 0.00 0.00 0.00 0.00 0.01 0.02 0.02 0.01 0.00 0.00 0.00 0.00 0.00 0.00 0.00 0.00 0.00 0.00 0.00 0.00 0.01 0.01 0.02 0.04 0.07 0.12 0.20 0.23 0.26 0.30 0.32 0.32 0.33 0.34
0.60 0.62 0.57 0.41 0.30 0.20 0.15 0.09 0.02 0.00 0.00 0.00 0.00 0.00 0.00 0.01 0.01 0.01 0.00 0.00 0.00 0.00 0.00 0.00 0.00 0.00 0.00 0.00 0.00 0.00 0.00 0.00 0.00 0.01 0.02 0.06 0.12 0.17 0.21 0.27 0.30 0.28 0.26 0.29
0.18 0.21 0.19 0.16 0.11 0.07 0.06 0.05 0.01 0.00 0.00 0.00 0.00 0.00 0.00 0.00 0.01 0.01 0.00 0.00 0.00 0.00 0.00 0.00 0.00 0.00 0.00 0.00 0.00 0.00 0.00 0.00 0.00 0.01 0.01 0.03 0.06 0.13 0.21 0.24 0.23 0.24 0.26 0.28
0.04 0.05 0.06 0.07 0.05 0.03 0.03 0.02 0.01 0.00 0.00 0.00 0.00 0.00 0.00 0.00 0.01 0.01 0.01 0.00 0.00 0.00 0.00 0.00 0.00 0.00 0.00 0.00 0.00 0.00 0.00 0.00 0.00 0.01 0.02 0.02 0.02 0.06 0.13 0.16 0.15 0.18 0.24 0.28
0.02 0.01 0.02 0.04 0.02 0.01 0.02 0.01 0.00 0.00 0.00 0.00 0.00 0.00 0.00 0.00 0.00 0.01 0.01 0.00 0.00 0.00 0.00 0.00 0.00 0.00 0.00 0.00 0.00 0.00 0.00 0.00 0.01 0.01 0.02 0.02 0.02 0.04 0.06 0.06 0.08 0.09 0.11 0.15
0.01 0.00 0.00 0.01 0.01 0.00 0.01 0.00 0.00 0.00 0.00 0.00 0.00 0.00 0.00 0.00 0.00 0.01 0.01 0.00 0.00 0.00 0.00 0.00 0.00 0.00 0.00 0.00 0.00 0.00 0.00 0.00 0.01 0.01 0.02 0.02 0.03 0.06 0.06 0.04 0.03 0.03 0.04 0.05
0.01 0.00 0.00 0.00 0.00 0.00 0.00 0.00 0.00 0.00 0.00 0.00 0.00 0.00 0.00 0.00 0.00 0.00 0.00 0.00 0.00 0.00 0.00 0.00 0.00 0.00 0.00 0.00 0.00 0.01 0.01 0.01 0.01 0.02 0.03 0.03 0.05 0.08 0.14 0.17 0.13 0.05 0.03 0.03
0.01 0.00 0.01 0.01 0.00 0.00 0.00 0.00 0.00 0.00 0.00 0.00 0.00 0.00 0.00 0.00 0.00 0.00 0.00 0.00 0.00 0.00 0.00 0.00 0.00 0.00 0.00 0.01 0.00 0.01 0.01 0.02 0.02 0.05 0.05 0.06 0.07 0.12 0.15 0.15 0.12 0.07 0.05 0.04
0.02 0.01 0.01 0.01 0.01 0.00 0.00 0.00 0.00 0.00 0.00 0.00 0.00 0.00 0.00 0.00 0.00 0.00 0.00 0.00 0.00 0.00 0.00 0.00 0.00 0.00 0.00 0.00 0.00 0.01 0.01 0.01 0.02 0.05 0.06 0.05 0.06 0.08 0.10 0.10 0.08 0.07 0.07 0.07
0.03 0.03 0.02 0.01 0.00 0.00 0.00 0.00 0.00 0.00 0.00 0.00 0.00 0.00 0.00 0.00 0.00 0.00 0.00 0.00 0.00 0.00 0.00 0.00 0.00 0.00 0.00 0.00 0.00 0.01 0.01 0.01 0.02 0.03 0.06 0.06 0.06 0.05 0.06 0.08 0.07 0.06 0.06 0.05
0.02 0.02 0.01 0.01 0.01 0.00 0.00 0.00 0.00 0.00 0.00 0.00 0.00 0.00 0.00 0.00 0.00 0.00 0.00 0.00 0.00 0.01 0.01 0.00 0.00 0.00 0.00 0.01 0.01 0.01 0.01 0.01 0.02 0.05 0.07 0.07 0.07 0.06 0.07 0.08 0.07 0.06 0.07 0.07
0.02 0.02 0.01 0.01 0.01 0.01 0.00 0.00 0.00 0.00 0.00 0.00 0.00 0.00 0.00 0.00 0.01 0.01 0.01 0.01 0.01 0.02 0.02 0.01 0.01 0.01 0.01 0.01 0.01 0.01 0.01 0.02 0.02 0.04 0.06 0.06 0.07 0.07 0.07 0.08 0.09 0.08 0.08 0.08
0.04 0.03 0.03 0.02 0.01 0.01 0.01 0.01 0.00 0.00 0.00 0.00 0.00 0.01 0.01 0.01 0.01 0.01 0.01 0.01 0.02 0.03 0.03 0.04 0.04 0.04 0.03 0.03 0.03 0.03 0.04 0.05 0.05 0.07 0.07 0.07 0.08 0.09 0.09 0.09 0.09 0.09 0.10 0.12
0.04 0.04 0.03 0.02 0.01 0.01 0.01 0.01 0.01 0.01 0.01 0.01 0.02 0.02 0.02 0.02 0.01 0.01 0.01 0.01 0.01 0.01 0.02 0.04 0.05 0.06 0.06 0.07 0.08 0.07 0.07 0.08 0.08 0.09 0.09 0.10 0.09 0.10 0.10 0.10 0.11 0.12 0.13 0.14
0.03 0.02 0.02 0.02 0.01 0.01 0.01 0.01 0.01 0.01 0.02 0.03 0.03 0.03 0.02 0.02 0.01 0.01 0.01 0.01 0.01 0.02 0.03 0.04 0.04 0.05 0.07 0.10 0.08 0.08 0.08 0.08 0.08 0.09 0.10 0.12 0.13 0.14 0.14 0.15 0.16 0.15 0.15 0.16
0.02 0.02 0.02 0.02 0.02 0.02 0.02 0.02 0.02 0.02 0.03 0.04 0.04 0.03 0.03 0.03 0.03 0.03 0.03 0.03 0.02 0.03 0.03 0.03 0.04 0.07 0.10 0.08 0.05 0.05 0.05 0.06 0.07 0.08 0.10 0.12 0.14 0.16 0.17 0.17 0.18 0.19 0.20 0.21
0.04 0.03 0.03 0.03 0.03 0.03 0.03 0.03 0.04 0.04 0.05 0.06 0.06 0.06 0.06 0.07 0.07 0.07 0.07 0.06 0.06 0.06 0.05 0.06 0.07 0.11 0.12 0.07 0.06 0.06 0.06 0.07 0.08 0.09 0.10 0.12 0.13 0.15 0.17 0.19 0.20 0.21 0.23 0.25
0.04 0.03 0.03 0.03 0.03 0.03 0.03 0.03 0.03 0.03 0.04 0.05 0.06 0.07 0.07 0.07 0.09 0.10 0.10 0.10 0.10 0.12 0.12 0.12 0.14 0.16 0.14 0.11 0.10 0.11 0.11 0.11 0.13 0.14 0.14 0.15 0.17 0.19 0.21 0.24 0.26 0.27 0.27 0.29
0.05 0.04 0.03 0.03 0.03 0.04 0.04 0.04 0.04 0.04 0.04 0.04 0.05 0.06 0.07 0.08 0.09 0.10 0.12 0.13 0.14 0.16 0.17 0.17 0.18 0.18 0.17 0.17 0.16 0.17 0.18 0.18 0.18 0.18 0.18 0.19 0.21 0.22 0.23 0.26 0.29 0.33 0.34 0.35
0.06 0.05 0.04 0.04 0.05 0.04 0.05 0.05 0.06 0.06 0.06 0.06 0.06 0.06 0.07 0.07 0.07 0.09 0.11 0.13 0.15 0.18 0.20 0.21 0.21 0.21 0.20 0.20 0.21 0.22 0.22 0.22 0.22 0.23 0.23 0.25 0.26 0.27 0.28 0.29 0.32 0.34 0.36 0.38

GEFSNGP_prec_meanprecacc_150.txt.gz
Total_Precipitation_Accumulation
0.19 0.18 0.26 0.45 0.58 0.52 0.55 0.64 0.87 0.76 0.61 0.55 0.52 0.54 0.55 0.57 0.60 0.57 0.58 0.57 0.56 0.55 0.57 0.63 0.63 0.61 0.65 0.72 0.83 0.98 1.06 0.94 0.80 0.68 0.58 0.53 0.56 0.53 0.54 0.61 0.64 0.71 0.76 0.87
0.05 0.08 0.16 0.39 0.50 0.53 0.53 0.50 0.50 0.42 0.40 0.31 0.30 0.35 0.34 0.34 0.37 0.34 0.33 0.33 0.31 0.28 0.28 0.33 0.33 0.35 0.40 0.48 0.62 0.85 0.93 0.81 0.64 0.56 0.53 0.49 0.48 0.45 0.44 0.47 0.53 0.58 0.64 0.80
0.06 0.08 0.16 0.39 0.42 0.47 0.36 0.21 0.18 0.23 0.24 0.17 0.19 0.27 0.26 0.28 0.30 0.26 0.24 0.24 0.24 0.23 0.20 0.20 0.20 0.23 0.31 0.37 0.50 0.60 0.63 0.58 0.48 0.42 0.40 0.39 0.38 0.38 0.41 0.43 0.47 0.52 0.56 0.73
0.10 0.13 0.35 0.60 0.46 0.39 0.31 0.17 0.11 0.11 0.11 0.12 0.16 0.21 0.20 0.23 0.28 0.25 0.21 0.21 0.21 0.21 0.20 0.21 0.22 0.23 0.33 0.37 0.39 0.45 0.52 0.51 0.44 0.39 0.36 0.36 0.34 0.36 0.44 0.45 0.44 0.49 0.55 0.59
0.19 0.21 0.38 0.46 0.31 0.26 0.34 0.33 0.12 0.08 0.08 0.10 0.12 0.15 0.13 0.14 0.18 0.17 0.14 0.13 0.13 0.13 0.12 0.12 0.12 0.11 0.14 0.17 0.23 0.27 0.30 0.35 0.34 0.29 0.31 0.34 0.34 0.39 0.43 0.44 0.48 0.50 0.55 0.58
0.25 0.27 0.38 0.31 0.14 0.11 0.23 0.43 0.17 0.06 0.05 0.04 0.05 0.09 0.06 0.06 0.06 0.06 0.04 0.03 0.03 0.04 0.04 0.04 0.03 0.03 0.04 0.05 0.06 0.09 0.10 0.14 0.19 0.19 0.23 0.29 0.38 0.44 0.42 0.41 0.47 0.48 0.47 0.47
0.39 0.49 0.63 0.42 0.18 0.13 0.30 0.40 0.15 0.04 0.01 0.01 0.01 0.02 0.02 0.04 0.03 0.02 0.01 0.01 0.01 0.01 0.01 0.02 0.02 0.01 0.02 0.02 0.02 0.02 0.02 0.04 0.07 0.11 0.17 0.26 0.33 0.32 0.33 0.36 0.40 0.41 0.44 0.44
0.56 0.72 0.89 0.57 0.34 0.30 0.27 0.14 0.06 0.01 0.00 0.00 0.01 0.01 0.01 0.02 0.03 0.01 0.00 0.00 0.00 0.00 0.00 0.00 0.00 0.00 0.00 0.00 0.00 0.00 0.01 0.01 0.02 0.04 0.07 0.13 0.20 0.23 0.26 0.30 0.32 0.32 0.33 0.34
0.61 0.62 0.58 0.41 0.30 0.20 0.15 0.09 0.02 0.00 0.00 0.00 0.00 0.00 0.00 0.01 0.02 0.01 0.00 0.00 0.00 0.00 0.00 0.00 0.00 0.00 0.00 0.00 0.00 0.00 0.00 0.00 0.01 0.01 0.02 0.06 0.12 0.17 0.21 0.27 0.30 0.28 0.26 0.29
0.19 0.21 0.20 0.16 0.11 0.07 0.06 0.05 0.01 0.00 0.00 0.00 0.00 0.00 0.00 0.00 0.01 0.01 0.01 0.00 0.00 0.00 0.00 0.00 0.00 0.00 0.00 0.00 0.00 0.00 0.00 0.00 0.01 0.01 0.01 0.03 0.06 0.13 0.21 0.24 0.23 0.24 0.26 0.28
0.04 0.05 0.06 0.07 0.05 0.03 0.03 0.02 0.01 0.00 0.00 0.00 0.00 0.00 0.00 0.00 0.01 0.01 0.01 0.00 0.00 0.00 0.00 0.00 0.00 0.00 0.00 0.00 0.00 0.00 0.00 0.00 0.00 0.01 0.02 0.02 0.02 0.06 0.13 0.16 0.15 0.18 0.24 0.28
0.02 0.01 0.02 0.04 0.02 0.01 0.02 0.01 0.00 0.00 0.00 0.00 0.00 0.00 0.00 0.00 0.00 0.01 0.01 0.00 0.00 0.00 0.00 0.00 0.00 0.00 0.00 0.00 0.00 0.00 0.00 0.00 0.01 0.01 0.02 0.02 0.02 0.04 0.06 0.06 0.08 0.09 0.11 0.15
0.02 0.00 0.00 0.01 0.01 0.00 0.01 0.00 0.00 0.00 0.00 0.00 0.00 0.00 0.00 0.00 0.00 0.01 0.01 0.00 0.00 0.00 0.00 0.00 0.00 0.00 0.00 0.00 0.00 0.00 0.00 0.00 0.01 0.01 0.02 0.02 0.03 0.06 0.06 0.04 0.03 0.03 0.04 0.05
0.01 0.01 0.00 0.00 0.00 0.00 0.00 0.00 0.00 0.00 0.00 0.00 0.00 0.00 0.00 0.00 0.00 0.00 0.01 0.01 0.00 0.00 0.00 0.00 0.00 0.00 0.01 0.01 0.00 0.01 0.01 0.01 0.01 0.02 0.03 0.03 0.05 0.08 0.14 0.17 0.13 0.05 0.03 0.03
0.02 0.01 0.01 0.01 0.00 0.00 0.00 0.00 0.00 0.00 0.00 0.00 0.00 0.00 0.00 0.00 0.00 0.00 0.00 0.01 0.00 0.00 0.00 0.00 0.00 0.00 0.01 0.01 0.01 0.01 0.01 0.02 0.02 0.05 0.05 0.06 0.07 0.12 0.15 0.15 0.12 0.07 0.05 0.04
0.05 0.02 0.02 0.02 0.01 0.00 0.00 0.00 0.00 0.00 0.00 0.00 0.00 0.00 0.00 0.00 0.00 0.00 0.00 0.00 0.00 0.00 0.00 0.00 0.00 0.00 0.00 0.01 0.00 0.01 0.01 0.01 0.02 0.05 0.06 0.05 0.06 0.08 0.10 0.10 0.08 0.07 0.07 0.07
0.05 0.06 0.04 0.02 0.01 0.00 0.00 0.00 0.00 0.00 0.00 0.00 0.00 0.00 0.00 0.00 0.00 0.00 0.00 0.00 0.00 0.01 0.00 0.00 0.00 0.00 0.00 0.00 0.00 0.01 0.01 0.01 0.02 0.03 0.06 0.06 0.06 0.05 0.06 0.08 0.07 0.06 0.06 0.05
0.03 0.03 0.03 0.03 0.02 0.01 0.00 0.00 0.00 0.00 0.00 0.00 0.00 0.00 0.00 0.00 0.00 0.00 0.00 0.00 0.00 0.01 0.01 0.00 0.00 0.00 0.00 0.01 0.01 0.01 0.01 0.02 0.02 0.05 0.07 0.08 0.07 0.06 0.07 0.08 0.07 0.06 0.07 0.07
0.02 0.02 0.02 0.02 0.02 0.02 0.01 0.00 0.00 0.00 0.00 0.00 0.00 0.00 0.00 0.00 0.01 0.01 0.01 0.01 0.01 0.02 0.02 0.01 0.01 0.01 0.01 0.01 0.01 0.01 0.01 0.02 0.02 0.04 0.06 0.06 0.07 0.07 0.07 0.08 0.09 0.08 0.08 0.08
0.05 0.04 0.04 0.03 0.02 0.02 0.01 0.01 0.01 0.01 0.00 0.00 0.01 0.01 0.01 0.01 0.01 0.01 0.01 0.01 0.02 0.03 0.03 0.04 0.04 0.04 0.03 0.03 0.03 0.03 0.04 0.05 0.05 0.07 0.07 0.07 0.08 0.09 0.09 0.09 0.09 0.09 0.10 0.12
0.05 0.04 0.04 0.03 0.02 0.01 0.01 0.01 0.01 0.01 0.01 0.01 0.02 0.02 0.02 0.02 0.01 0.01 0.01 0.01 0.01 0.01 0.02 0.04 0.05 0.06 0.06 0.08 0.08 0.07 0.07 0.08 0.08 0.09 0.09 0.10 0.09 0.10 0.10 0.10 0.11 0.12 0.13 0.14
0.03 0.02 0.02 0.02 0.01 0.01 0.01 0.01 0.01 0.01 0.02 0.03 0.03 0.03 0.02 0.02 0.01 0.01 0.01 0.01 0.01 0.02 0.03 0.04 0.04 0.05 0.08 0.10 0.08 0.08 0.08 0.08 0.08 0.09 0.10 0.12 0.13 0.14 0.15 0.16 0.16 0.15 0.15 0.16
0.03 0.02 0.02 0.02 0.02 0.02 0.02 0.02 0.02 0.02 0.03 0.04 0.04 0.03 0.03 0.03 0.03 0.03 0.03 0.03 0.02 0.03 0.03 0.03 0.04 0.07 0.11 0.08 0.06 0.05 0.05 0.06 0.07 0.08 0.10 0.12 0.14 0.16 0.17 0.17 0.18 0.19 0.20 0.21
0.04 0.04 0.03 0.03 0.03 0.03 0.04 0.04 0.04 0.05 0.05 0.06 0.06 0.06 0.06 0.07 0.07 0.07 0.07 0.07 0.06 0.07 0.06 0.06 0.07 0.12 0.13 0.07 0.06 0.07 0.07 0.08 0.08 0.09 0.10 0.12 0.13 0.15 0.18 0.19 0.20 0.21 0.23 0.26
0.05 0.03 0.03 0.03 0.03 0.03 0.03 0.03 0.03 0.03 0.04 0.05 0.06 0.07 0.07 0.07 0.09 0.10 0.10 0.10 0.11 0.12 0.12 0.13 0.15 0.16 0.14 0.11 0.11 0.11 0.12 0.12 0.13 0.15 0.14 0.15 0.17 0.19 0.21 0.24 0.27 0.28 0.28 0.30
0.06 0.04 0.03 0.03 0.04 0.04 0.04 0.04 0.04 0.04 0.04 0.04 0.05 0.06 0.07 0.08 0.09 0.10 0.12 0.13 0.15 0.16 0.17 0.18 0.18 0.19 0.18 0.18 0.17 0.18 0.18 0.18 0.19 0.19 0.18 0.20 0.21 0.22 0.24 0.26 0.30 0.33 0.35 0.36
0.07 0.05 0.04 0.05 0.05 0.05 0.05 0.05 0.06 0.06 0.07 0.07 0.06 0.06 0.07 0.07 0.08 0.09 0.11 0.13 0.15 0.18 0.20 0.21 0.22 0.22 0.21 0.21 0.22 0.23 0.22 0.22 0.22 0.23 0.24 0.25 0.26 0.27 0.28 0.30 0.33 0.35 0.37 0.39

GEFSNGP_prec_meanprecacc_156.txt.gz
Total_Precipitation_Accumulation
0.19 0.19 0.27 0.46 0.58 0.53 0.55 0.64 0.88 0.77 0.61 0.55 0.52 0.55 0.56 0.60 0.63 0.58 0.59 0.58 0.56 0.56 0.57 0.63 0.64 0.61 0.66 0.73 0.83 0.98 1.06 0.95 0.81 0.68 0.58 0.53 0.56 0.53 0.54 0.61 0.64 0.71 0.76 0.87
0.06 0.08 0.17 0.39 0.50 0.53 0.53 0.50 0.50 0.42 0.40 0.31 0.30 0.35 0.35 0.37 0.38 0.35 0.34 0.34 0.32 0.29 0.28 0.33 0.33 0.36 0.40 0.48 0.63 0.85 0.94 0.81 0.64 0.57 0.53 0.49 0.48 0.45 0.44 0.47 0.53 0.58 0.64 0.80
0.08 0.09 0.16 0.40 0.42 0.47 0.36 0.21 0.19 0.23 0.25 0.18 0.19 0.27 0.27 0.31 0.31 0.26 0.24 0.25 0.25 0.23 0.21 0.21 0.20 0.23 0.31 0.37 0.50 0.61 0.64 0.59 0.48 0.42 0.40 0.39 0.38 0.38 0.41 0.43 0.47 0.52 0.56 0.73
0.14 0.15 0.36 0.60 0.46 0.39 0.31 0.17 0.11 0.11 0.11 0.12 0.17 0.21 0.20 0.24 0.29 0.25 0.21 0.22 0.22 0.22 0.21 0.22 0.22 0.24 0.33 0.38 0.40 0.46 0.53 0.51 0.44 0.39 0.36 0.36 0.34 0.36 0.44 0.45 0.44 0.49 0.55 0.59
0.23 0.24 0.39 0.47 0.31 0.27 0.34 0.33 0.12 0.08 0.09 0.10 0.12 0.15 0.13 0.14 0.19 0.18 0.15 0.13 0.14 0.14 0.13 0.13 0.12 0.11 0.14 0.18 0.23 0.27 0.30 0.35 0.34 0.29 0.31 0.34 0.34 0.39 0.43 0.44 0.48 0.50 0.55 0.58
0.29 0.29 0.40 0.32 0.14 0.11 0.23 0.43 0.17 0.07 0.05 0.04 0.05 0.09 0.06 0.06 0.06 0.06 0.05 0.04 0.04 0.04 0.04 0.04 0.03 0.03 0.04 0.05 0.07 0.09 0.10 0.14 0.19 0.19 0.23 0.29 0.38 0.44 0.42 0.41 0.47 0.48 0.47 0.47
0.42 0.51 0.64 0.43 0.18 0.13 0.30 0.40 0.15 0.04 0.01 0.01 0.01 0.02 0.02 0.04 0.03 0.02 0.01 0.01 0.01 0.01 0.02 0.02 0.02 0.02 0.02 0.02 0.02 0.03 0.03 0.04 0.07 0.11 0.17 0.26 0.33 0.32 0.33 0.36 0.40 0.41 0.44 0.44
0.57 0.74 0.90 0.58 0.34 0.31 0.27 0.14 0.06 0.01 0.00 0.00 0.01 0.01 0.01 0.03 0.03 0.02 0.01 0.00 0.00 0.00 0.01 0.01 0.01 0.01 0.00 0.00 0.01 0.01 0.01 0.01 0.02 0.04 0.07 0.13 0.20 0.23 0.26 0.30 0.32 0.32 0.33 0.34
0.62 0.64 0.59 0.42 0.31 0.21 0.15 0.09 0.02 0.00 0.00 0.00 0.00 0.00 0.00 0.01 0.02 0.02 0.01 0.00 0.00 0.00 0.00 0.01 0.00 0.00 0.00 0.00 0.01 0.01 0.00 0.00 0.01 0.01 0.02 0.06 0.12 0.17 0.21 0.27 0.30 0.28 0.26 0.29
0.20 0.23 0.21 0.17 0.12 0.08 0.06 0.05 0.01 0.00 0.00 0.00 0.00 0.00 0.00 0.00 0.01 0.02 0.01 0.00 0.00 0.00 0.01 0.01 0.01 0.01 0.01 0.01 0.01 0.00 0.00 0.00 0.01 0.01 0.02 0.03 0.06 0.13 0.21 0.24 0.23 0.24 0.26 0.28
0.06 0.06 0.07 0.07 0.05 0.04 0.03 0.02 0.01 0.00 0.00 0.00 0.00 0.00 0.00 0.00 0.01 0.02 0.01 0.00 0.00 0.00 0.01 0.01 0.01 0.01 0.01 0.01 0.00 0.00 0.00 0.00 0.01 0.01 0.02 0.02 0.02 0.06 0.13 0.16 0.15 0.19 0.24 0.28
0.04 0.02 0.03 0.05 0.03 0.02 0.02 0.01 0.00 0.00 0.00 0.00 0.00 0.00 0.00 0.00 0.01 0.02 0.01 0.00 0.00 0.00 0.01 0.01 0.01 0.01 0.00 0.00 0.00 0.00 0.00 0.00 0.01 0.01 0.02 0.02 0.03 0.04 0.06 0.07 0.09 0.09 0.11 0.15
0.03 0.01 0.01 0.02 0.01 0.00 0.01 0.00 0.00 0.00 0.00 0.00 0.00 0.00 0.00 0.00 0.01 0.01 0.01 0.01 0.00 0.00 0.00 0.00 0.00 0.01 0.00 0.00 0.00 0.00 0.00 0.00 0.01 0.01 0.02 0.02 0.03 0.06 0.07 0.05 0.03 0.03 0.04 0.05
0.02 0.01 0.01 0.01 0.01 0.00 0.00 0.00 0.00 0.00 0.00 0.00 0.00 0.00 0.00 0.00 0.00 0.00 0.01 0.01 0.00 0.00 0.00 0.01 0.01 0.01 0.01 0.01 0.00 0.01 0.01 0.01 0.01 0.03 0.03 0.03 0.05 0.08 0.14 0.17 0.13 0.05 0.03 0.03
0.03 0.03 0.03 0.02 0.01 0.01 0.00 0.00 0.01 0.00 0.00 0.00 0.00 0.00 0.00 0.00 0.00 0.00 0.01 0.01 0.01 0.01 0.01 0.01 0.01 0.01 0.01 0.01 0.01 0.01 0.01 0.02 0.02 0.05 0.05 0.06 0.07 0.12 0.15 0.15 0.12 0.07 0.05 0.04
0.06 0.04 0.04 0.04 0.02 0.01 0.01 0.00 0.00 0.00 0.00 0.00 0.00 0.00 0.00 0.00 0.00 0.00 0.00 0.00 0.01 0.01 0.01 0.00 0.01 0.01 0.01 0.01 0.00 0.01 0.01 0.01 0.02 0.05 0.06 0.05 0.06 0.08 0.10 0.10 0.08 0.07 0.07 0.07
0.06 0.07 0.05 0.04 0.03 0.02 0.01 0.01 0.00 0.00 0.00 0.00 0.00 0.00 0.00 0.00 0.00 0.00 0.00 0.00 0.01 0.01 0.01 0.01 0.01 0.01 0.01 0.01 0.01 0.01 0.01 0.01 0.02 0.03 0.06 0.06 0.06 0.05 0.06 0.08 0.07 0.06 0.06 0.05
0.04 0.04 0.04 0.05 0.04 0.03 0.02 0.01 0.01 0.00 0.00 0.00 0.00 0.00 0.00 0.00 0.00 0.00 0.00 0.00 0.01 0.01 0.01 0.01 0.01 0.01 0.01 0.01 0.01 0.01 0.01 0.02 0.02 0.05 0.07 0.08 0.07 0.06 0.07 0.08 0.07 0.06 0.07 0.07
0.03 0.03 0.02 0.02 0.02 0.03 0.03 0.02 0.01 0.01 0.00 0.00 0.01 0.01 0.00 0.01 0.01 0.01 0.01 0.01 0.02 0.02 0.02 0.01 0.01 0.01 0.01 0.02 0.02 0.02 0.02 0.02 0.02 0.04 0.06 0.06 0.07 0.07 0.07 0.08 0.09 0.08 0.08 0.08
0.05 0.05 0.04 0.03 0.02 0.02 0.02 0.02 0.02 0.01 0.01 0.01 0.01 0.01 0.01 0.01 0.01 0.01 0.01 0.01 0.02 0.03 0.03 0.04 0.04 0.04 0.03 0.03 0.04 0.04 0.04 0.05 0.06 0.07 0.07 0.07 0.09 0.09 0.10 0.09 0.10 0.09 0.10 0.12
0.06 0.05 0.05 0.04 0.03 0.02 0.02 0.02 0.02 0.02 0.02 0.02 0.03 0.03 0.03 0.02 0.01 0.01 0.01 0.01 0.01 0.01 0.02 0.04 0.05 0.06 0.06 0.08 0.08 0.08 0.08 0.08 0.09 0.10 0.10 0.10 0.10 0.10 0.11 0.11 0.11 0.12 0.13 0.14
0.06 0.04 0.03 0.02 0.02 0.02 0.02 0.02 0.02 0.02 0.02 0.03 0.03 0.03 0.02 0.02 0.01 0.01 0.01 0.01 0.01 0.02 0.03 0.04 0.05 0.05 0.08 0.10 0.09 0.08 0.08 0.08 0.08 0.09 0.11 0.12 0.13 0.14 0.15 0.16 0.16 0.16 0.15 0.16
0.06 0.05 0.04 0.03 0.03 0.03 0.03 0.02 0.02 0.03 0.03 0.04 0.04 0.03 0.03 0.03 0.03 0.03 0.03 0.03 0.02 0.03 0.03 0.03 0.04 0.07 0.11 0.08 0.06 0.05 0.05 0.06 0.07 0.08 0.10 0.13 0.14 0.16 0.17 0.18 0.19 0.20 0.21 0.21
0.06 0.06 0.05 0.04 0.04 0.04 0.04 0.04 0.04 0.05 0.05 0.06 0.06 0.06 0.06 0.07 0.07 0.07 0.07 0.07 0.06 0.07 0.06 0.06 0.07 0.12 0.13 0.07 0.06 0.07 0.07 0.08 0.09 0.09 0.11 0.13 0.14 0.16 0.19 0.20 0.21 0.22 0.24 0.27
0.06 0.05 0.05 0.05 0.05 0.04 0.04 0.03 0.03 0.04 0.05 0.06 0.06 0.07 0.07 0.07 0.09 0.10 0.10 0.10 0.11 0.12 0.12 0.13 0.15 0.16 0.14 0.11 0.11 0.11 0.12 0.12 0.14 0.16 0.15 0.16 0.18 0.20 0.22 0.25 0.27 0.29 0.30 0.31
0.08 0.06 0.05 0.05 0.05 0.05 0.05 0.05 0.05 0.05 0.05 0.05 0.05 0.06 0.07 0.08 0.09 0.10 0.12 0.13 0.15 0.16 0.17 0.18 0.19 0.19 0.18 0.18 0.17 0.18 0.19 0.19 0.19 0.19 0.19 0.20 0.21 0.23 0.24 0.27 0.31 0.35 0.37 0.38
0.08 0.07 0.06 0.06 0.06 0.06 0.06 0.07 0.07 0.07 0.08 0.08 0.07 0.07 0.07 0.07 0.08 0.09 0.11 0.13 0.15 0.18 0.20 0.22 0.22 0.22 0.21 0.21 0.22 0.23 0.22 0.22 0.23 0.23 0.24 0.26 0.27 0.28 0.29 0.30 0.34 0.37 0.39 0.41

GEFSNGP_prec_meanprecacc_162.txt.gz
Total_Precipitation_Accumulation
0.20 0.20 0.28 0.47 0.59 0.54 0.56 0.65 0.89 0.77 0.62 0.56 0.53 0.55 0.57 0.61 0.65 0.61 0.61 0.62 0.60 0.57 0.58 0.63 0.64 0.62 0.66 0.73 0.84 0.98 1.06 0.95 0.81 0.68 0.58 0.53 0.56 0.53 0.54 0.61 0.64 0.71 0.76 0.87
0.07 0.09 0.17 0.40 0.50 0.53 0.53 0.51 0.51 0.43 0.40 0.31 0.30 0.36 0.37 0.39 0.39 0.37 0.36 0.37 0.35 0.31 0.29 0.33 0.34 0.36 0.40 0.48 0.63 0.86 0.94 0.82 0.65 0.57 0.54 0.49 0.48 0.45 0.44 0.47 0.53 0.58 0.64 0.80
0.10 0.10 0.17 0.41 0.43 0.47 0.36 0.23 0.20 0.24 0.25 0.18 0.19 0.28 0.30 0.33 0.33 0.29 0.26 0.27 0.27 0.24 0.21 0.22 0.21 0.24 0.32 0.38 0.51 0.62 0.66 0.60 0.48 0.42 0.40 0.39 0.38 0.38 0.41 0.43 0.47 0.52 0.56 0.73
0.18 0.18 0.39 0.61 0.47 0.39 0.32 0.18 0.11 0.11 0.11 0.12 0.17 0.22 0.21 0.26 0.31 0.27 0.23 0.24 0.24 0.24 0.23 0.24 0.26 0.27 0.36 0.40 0.42 0.47 0.54 0.53 0.45 0.40 0.37 0.36 0.35 0.36 0.44 0.45 0.44 0.49 0.55 0.59
0.27 0.29 0.41 0.48 0.32 0.27 0.34 0.33 0.13 0.09 0.09 0.10 0.12 0.16 0.14 0.15 0.20 0.20 0.16 0.15 0.15 0.15 0.14 0.14 0.14 0.14 0.16 0.20 0.25 0.28 0.31 0.36 0.35 0.30 0.31 0.34 0.34 0.40 0.44 0.44 0.48 0.50 0.55 0.58
0.33 0.35 0.45 0.35 0.15 0.11 0.24 0.44 0.17 0.07 0.06 0.04 0.05 0.10 0.07 0.06 0.07 0.08 0.07 0.05 0.05 0.05 0.05 0.05 0.04 0.04 0.05 0.06 0.07 0.09 0.10 0.15 0.19 0.20 0.23 0.29 0.38 0.44 0.42 0.41 0.47 0.48 0.47 0.47
0.44 0.55 0.68 0.45 0.19 0.14 0.32 0.42 0.16 0.05 0.02 0.02 0.02 0.02 0.02 0.04 0.03 0.02 0.02 0.02 0.01 0.02 0.02 0.02 0.02 0.03 0.03 0.04 0.03 0.03 0.03 0.04 0.07 0.12 0.17 0.26 0.33 0.32 0.33 0.36 0.40 0.41 0.44 0.44
0.60 0.79 0.95 0.60 0.37 0.33 0.28 0.15 0.06 0.02 0.01 0.01 0.01 0.01 0.01 0.03 0.03 0.02 0.01 0.01 0.01 0.01 0.01 0.01 0.01 0.01 0.02 0.02 0.01 0.01 0.01 0.01 0.02 0.05 0.07 0.13 0.20 0.23 0.26 0.30 0.32 0.32 0.33 0.34
0.66 0.68 0.62 0.45 0.34 0.24 0.17 0.10 0.02 0.01 0.00 0.00 0.00 0.00 0.01 0.01 0.02 0.02 0.01 0.00 0.00 0.01 0.01 0.01 0.00 0.00 0.00 0.01 0.01 0.01 0.01 0.01 0.01 0.01 0.02 0.06 0.12 0.17 0.21 0.27 0.30 0.28 0.27 0.29
0.22 0.25 0.23 0.18 0.14 0.10 0.07 0.05 0.01 0.00 0.00 0.00 0.00 0.00 0.00 0.01 0.01 0.02 0.01 0.00 0.01 0.01 0.01 0.01 0.01 0.01 0.01 0.01 0.01 0.01 0.01 0.01 0.01 0.01 0.02 0.03 0.06 0.13 0.22 0.24 0.23 0.24 0.26 0.29
0.07 0.07 0.08 0.08 0.06 0.05 0.04 0.02 0.01 0.00 0.00 0.00 0.00 0.00 0.00 0.00 0.01 0.02 0.01 0.00 0.01 0.01 0.01 0.01 0.01 0.01 0.01 0.01 0.01 0.01 0.01 0.01 0.01 0.01 0.02 0.02 0.03 0.07 0.14 0.16 0.16 0.19 0.24 0.28
0.05 0.03 0.04 0.05 0.04 0.03 0.03 0.01 0.00 0.00 0.00 0.00 0.00 0.00 0.00 0.00 0.01 0.02 0.02 0.01 0.00 0.01 0.02 0.02 0.01 0.01 0.01 0.01 0.01 0.01 0.02 0.01 0.01 0.01 0.02 0.02 0.03 0.04 0.07 0.07 0.09 0.10 0.11 0.15
0.04 0.02 0.02 0.03 0.02 0.02 0.02 0.01 0.00 0.00 0.00 0.00 0.00 0.00 0.00 0.00 0.01 0.02 0.03 0.01 0.01 0.01 0.01 0.02 0.01 0.01 0.01 0.01 0.01 0.01 0.02 0.01 0.01 0.01 0.02 0.02 0.04 0.07 0.07 0.05 0.03 0.03 0.04 0.05
0.03 0.02 0.02 0.02 0.02 0.02 0.01 0.01 0.01 0.00 0.00 0.00 0.00 0.00 0.00 0.00 0.01 0.01 0.02 0.02 0.01 0.01 0.02 0.02 0.01 0.01 0.01 0.01 0.01 0.01 0.02 0.02 0.02 0.03 0.03 0.03 0.05 0.09 0.14 0.17 0.13 0.05 0.03 0.03
0.04 0.03 0.03 0.03 0.03 0.02 0.01 0.01 0.01 0.00 0.00 0.00 0.00 0.00 0.00 0.01 0.02 0.03 0.01 0.02 0.02 0.02 0.02 0.02 0.01 0.01 0.01 0.01 0.01 0.01 0.02 0.03 0.03 0.05 0.06 0.06 0.07 0.12 0.15 0.15 0.12 0.07 0.05 0.04
0.07 0.04 0.05 0.05 0.04 0.03 0.02 0.02 0.02 0.01 0.01 0.01 0.00 0.00 0.00 0.00 0.02 0.05 0.03 0.01 0.02 0.02 0.01 0.01 0.01 0.01 0.01 0.01 0.01 0.01 0.02 0.03 0.03 0.05 0.06 0.05 0.06 0.08 0.10 0.10 0.08 0.07 0.07 0.07
0.07 0.08 0.06 0.06 0.05 0.04 0.03 0.03 0.03 0.01 0.01 0.01 0.00 0.00 0.00 0.00 0.02 0.04 0.04 0.02 0.02 0.02 0.01 0.01 0.01 0.01 0.01 0.01 0.01 0.01 0.02 0.02 0.03 0.04 0.06 0.06 0.06 0.05 0.06 0.08 0.07 0.06 0.06 0.05
0.05 0.05 0.05 0.06 0.05 0.05 0.04 0.04 0.04 0.02 0.01 0.01 0.01 0.00 0.00 0.01 0.01 0.02 0.02 0.02 0.02 0.02 0.02 0.01 0.01 0.01 0.02 0.02 0.02 0.02 0.02 0.02 0.03 0.05 0.07 0.08 0.07 0.06 0.07 0.08 0.07 0.06 0.07 0.07
0.03 0.03 0.03 0.03 0.03 0.04 0.05 0.05 0.05 0.03 0.02 0.01 0.01 0.01 0.01 0.01 0.02 0.02 0.02 0.03 0.03 0.03 0.03 0.02 0.02 0.03 0.03 0.03 0.03 0.02 0.02 0.02 0.03 0.04 0.06 0.06 0.07 0.07 0.07 0.08 0.09 0.08 0.08 0.08
0.06 0.05 0.04 0.03 0.03 0.02 0.03 0.04 0.04 0.04 0.03 0.02 0.02 0.02 0.02 0.02 0.01 0.02 0.02 0.02 0.03 0.03 0.04 0.04 0.05 0.05 0.05 0.05 0.05 0.05 0.05 0.05 0.06 0.07 0.07 0.08 0.09 0.10 0.10 0.09 0.10 0.09 0.10 0.12
0.06 0.05 0.05 0.04 0.03 0.02 0.02 0.02 0.03 0.03 0.03 0.04 0.04 0.04 0.03 0.02 0.02 0.01 0.01 0.01 0.01 0.02 0.03 0.05 0.07 0.07 0.07 0.09 0.09 0.08 0.08 0.08 0.09 0.10 0.10 0.10 0.10 0.10 0.11 0.11 0.11 0.12 0.14 0.14
0.07 0.05 0.03 0.03 0.03 0.02 0.02 0.02 0.02 0.02 0.03 0.04 0.05 0.04 0.04 0.03 0.02 0.01 0.01 0.01 0.02 0.02 0.03 0.05 0.06 0.06 0.09 0.11 0.09 0.08 0.08 0.09 0.09 0.09 0.11 0.12 0.13 0.14 0.15 0.16 0.17 0.16 0.16 0.16
0.08 0.07 0.05 0.05 0.04 0.04 0.03 0.02 0.02 0.03 0.04 0.04 0.04 0.04 0.04 0.04 0.04 0.04 0.04 0.03 0.02 0.04 0.04 0.04 0.05 0.08 0.12 0.09 0.06 0.06 0.06 0.07 0.08 0.08 0.10 0.13 0.15 0.16 0.18 0.18 0.19 0.20 0.21 0.22
0.08 0.08 0.08 0.06 0.06 0.06 0.06 0.05 0.05 0.05 0.06 0.06 0.06 0.06 0.06 0.07 0.07 0.07 0.07 0.07 0.06 0.07 0.06 0.06 0.08 0.13 0.14 0.08 0.07 0.08 0.08 0.08 0.09 0.10 0.11 0.13 0.15 0.16 0.19 0.21 0.22 0.23 0.25 0.28
0.08 0.07 0.07 0.07 0.07 0.06 0.06 0.06 0.05 0.05 0.05 0.06 0.07 0.07 0.07 0.08 0.09 0.10 0.11 0.10 0.11 0.12 0.12 0.13 0.15 0.17 0.14 0.12 0.11 0.12 0.12 0.13 0.15 0.16 0.16 0.16 0.18 0.21 0.23 0.26 0.28 0.30 0.30 0.33
0.09 0.07 0.07 0.07 0.07 0.07 0.06 0.06 0.06 0.06 0.06 0.06 0.06 0.07 0.07 0.08 0.09 0.10 0.12 0.13 0.15 0.17 0.17 0.18 0.19 0.19 0.18 0.18 0.18 0.18 0.19 0.19 0.20 0.19 0.19 0.21 0.22 0.23 0.25 0.28 0.31 0.35 0.38 0.39
0.10 0.08 0.07 0.08 0.09 0.08 0.08 0.08 0.08 0.09 0.09 0.08 0.08 0.07 0.07 0.07 0.08 0.09 0.11 0.13 0.15 0.18 0.21 0.22 0.22 0.23 0.22 0.22 0.23 0.24 0.23 0.23 0.24 0.24 0.25 0.27 0.28 0.29 0.29 0.31 0.35 0.38 0.40 0.42

GEFSNGP_prec_meanprecacc_168.txt.gz
Total_Precipitation_Accumulation
0.23 0.22 0.30 0.48 0.60 0.54 0.57 0.68 0.92 0.79 0.63 0.57 0.54 0.58 0.59 0.63 0.67 0.63 0.67 0.66 0.63 0.59 0.60 0.66 0.66 0.63 0.67 0.75 0.84 0.99 1.06 0.95 0.81 0.69 0.59 0.55 0.57 0.53 0.55 0.61 0.64 0.71 0.76 0.87
0.09 0.10 0.19 0.41 0.51 0.54 0.54 0.53 0.53 0.44 0.41 0.32 0.31 0.37 0.38 0.42 0.41 0.39 0.41 0.41 0.39 0.34 0.32 0.36 0.35 0.37 0.41 0.50 0.64 0.86 0.94 0.82 0.65 0.58 0.55 0.51 0.49 0.46 0.45 0.47 0.53 0.58 0.64 0.80
0.12 0.10 0.18 0.42 0.43 0.48 0.37 0.24 0.21 0.25 0.25 0.18 0.20 0.29 0.31 0.35 0.35 0.30 0.29 0.31 0.30 0.28 0.24 0.24 0.25 0.28 0.35 0.42 0.54 0.64 0.67 0.62 0.51 0.45 0.43 0.41 0.39 0.39 0.41 0.44 0.47 0.52 0.56 0.73
0.20 0.19 0.40 0.62 0.48 0.40 0.33 0.20 0.13 0.13 0.12 0.13 0.17 0.23 0.22 0.27 0.33 0.29 0.25 0.26 0.26 0.26 0.26 0.28 0.31 0.32 0.41 0.45 0.46 0.50 0.56 0.57 0.48 0.42 0.39 0.38 0.36 0.37 0.45 0.45 0.44 0.49 0.55 0.59
0.29 0.30 0.42 0.48 0.33 0.29 0.37 0.35 0.14 0.10 0.10 0.11 0.13 0.17 0.16 0.17 0.22 0.21 0.18 0.16 0.16 0.17 0.16 0.17 0.19 0.22 0.24 0.24 0.27 0.29 0.33 0.38 0.37 0.32 0.32 0.36 0.35 0.40 0.44 0.44 0.48 0.50 0.55 0.58
0.35 0.36 0.47 0.38 0.18 0.14 0.27 0.47 0.19 0.07 0.06 0.05 0.07 0.11 0.09 0.08 0.09 0.09 0.09 0.07 0.06 0.07 0.07 0.07 0.06 0.09 0.11 0.10 0.09 0.10 0.11 0.16 0.20 0.20 0.23 0.29 0.39 0.45 0.43 0.41 0.47 0.48 0.48 0.48
0.46 0.57 0.70 0.49 0.23 0.16 0.35 0.45 0.18 0.05 0.02 0.02 0.02 0.03 0.03 0.05 0.06 0.04 0.04 0.04 0.04 0.04 0.05 0.04 0.04 0.05 0.07 0.06 0.04 0.04 0.04 0.05 0.08 0.12 0.17 0.26 0.33 0.33 0.33 0.37 0.40 0.42 0.45 0.44
0.63 0.82 0.98 0.64 0.41 0.35 0.30 0.18 0.07 0.03 0.01 0.02 0.02 0.02 0.03 0.05 0.06 0.04 0.03 0.03 0.03 0.03 0.04 0.03 0.02 0.02 0.04 0.04 0.02 0.02 0.02 0.02 0.03 0.05 0.08 0.13 0.20 0.24 0.27 0.31 0.33 0.33 0.33 0.34
0.68 0.71 0.66 0.49 0.37 0.26 0.18 0.11 0.03 0.01 0.01 0.01 0.01 0.01 0.02 0.03 0.03 0.03 0.02 0.02 0.02 0.03 0.03 0.02 0.01 0.01 0.01 0.02 0.02 0.02 0.01 0.01 0.02 0.02 0.03 0.07 0.13 0.18 0.21 0.28 0.30 0.29 0.27 0.29
0.25 0.28 0.26 0.22 0.17 0.12 0.08 0.06 0.02 0.01 0.01 0.01 0.01 0.01 0.01 0.02 0.02 0.02 0.01 0.01 0.02 0.03 0.03 0.02 0.01 0.01 0.01 0.02 0.02 0.02 0.01 0.01 0.01 0.01 0.02 0.04 0.07 0.13 0.22 0.24 0.23 0.24 0.26 0.29
0.09 0.09 0.09 0.10 0.09 0.08 0.06 0.03 0.01 0.01 0.01 0.02 0.01 0.01 0.01 0.01 0.02 0.02 0.01 0.01 0.02 0.02 0.02 0.03 0.02 0.01 0.01 0.01 0.01 0.02 0.02 0.01 0.01 0.01 0.02 0.02 0.03 0.07 0.14 0.16 0.16 0.19 0.24 0.28
0.07 0.05 0.05 0.07 0.05 0.04 0.04 0.02 0.01 0.01 0.01 0.01 0.01 0.01 0.01 0.01 0.01 0.02 0.02 0.01 0.01 0.02 0.03 0.03 0.02 0.01 0.01 0.01 0.01 0.01 0.02 0.01 0.01 0.02 0.02 0.02 0.03 0.04 0.07 0.07 0.09 0.10 0.11 0.15
0.05 0.03 0.02 0.04 0.03 0.03 0.03 0.02 0.02 0.01 0.01 0.01 0.02 0.02 0.01 0.01 0.01 0.02 0.03 0.02 0.02 0.02 0.03 0.03 0.02 0.01 0.02 0.02 0.02 0.02 0.02 0.02 0.01 0.02 0.02 0.02 0.04 0.07 0.07 0.05 0.03 0.03 0.04 0.05
0.04 0.03 0.02 0.03 0.03 0.03 0.03 0.02 0.02 0.01 0.02 0.01 0.01 0.02 0.02 0.01 0.01 0.01 0.02 0.02 0.02 0.02 0.04 0.04 0.03 0.02 0.01 0.02 0.02 0.02 0.02 0.03 0.02 0.03 0.03 0.04 0.06 0.09 0.15 0.18 0.13 0.05 0.03 0.04
0.05 0.04 0.04 0.04 0.04 0.04 0.03 0.03 0.03 0.02 0.02 0.02 0.01 0.01 0.01 0.01 0.03 0.04 0.02 0.03 0.03 0.04 0.04 0.04 0.03 0.03 0.02 0.02 0.02 0.02 0.03 0.04 0.04 0.06 0.06 0.07 0.08 0.13 0.15 0.16 0.12 0.08 0.05 0.04
0.07 0.05 0.05 0.05 0.05 0.04 0.03 0.03 0.03 0.02 0.02 0.03 0.01 0.01 0.01 0.01 0.03 0.06 0.04 0.02 0.03 0.03 0.03 0.03 0.02 0.03 0.03 0.02 0.01 0.02 0.03 0.04 0.04 0.06 0.07 0.06 0.07 0.09 0.11 0.11 0.09 0.08 0.08 0.07
0.07 0.08 0.07 0.06 0.06 0.06 0.04 0.04 0.04 0.02 0.02 0.02 0.02 0.01 0.01 0.01 0.02 0.05 0.05 0.03 0.03 0.02 0.02 0.03 0.03 0.03 0.03 0.02 0.02 0.02 0.03 0.03 0.04 0.06 0.08 0.07 0.07 0.05 0.06 0.08 0.08 0.07 0.06 0.06
0.05 0.05 0.06 0.06 0.06 0.06 0.06 0.05 0.05 0.03 0.02 0.02 0.02 0.01 0.01 0.01 0.02 0.04 0.05 0.04 0.04 0.03 0.03 0.03 0.03 0.03 0.03 0.03 0.03 0.02 0.02 0.02 0.03 0.06 0.08 0.09 0.08 0.07 0.07 0.08 0.07 0.07 0.07 0.07
0.03 0.03 0.03 0.03 0.04 0.04 0.06 0.06 0.06 0.05 0.03 0.02 0.02 0.01 0.01 0.02 0.02 0.04 0.05 0.05 0.06 0.06 0.05 0.04 0.04 0.04 0.03 0.04 0.04 0.03 0.02 0.03 0.04 0.05 0.07 0.07 0.08 0.07 0.08 0.09 0.09 0.08 0.08 0.08
0.06 0.05 0.05 0.04 0.03 0.03 0.03 0.04 0.05 0.06 0.05 0.03 0.03 0.02 0.02 0.02 0.02 0.02 0.03 0.05 0.06 0.07 0.07 0.08 0.08 0.07 0.06 0.06 0.07 0.05 0.05 0.06 0.07 0.08 0.08 0.08 0.09 0.10 0.10 0.09 0.10 0.10 0.10 0.12
0.06 0.05 0.05 0.04 0.03 0.03 0.02 0.03 0.03 0.04 0.05 0.05 0.05 0.05 0.04 0.03 0.02 0.02 0.02 0.02 0.03 0.05 0.06 0.08 0.10 0.10 0.10 0.11 0.11 0.09 0.09 0.09 0.10 0.11 0.11 0.11 0.10 0.10 0.11 0.11 0.11 0.12 0.14 0.14
0.07 0.05 0.04 0.03 0.03 0.02 0.02 0.02 0.02 0.03 0.03 0.04 0.06 0.05 0.04 0.03 0.03 0.02 0.02 0.02 0.03 0.04 0.06 0.08 0.09 0.09 0.12 0.13 0.11 0.10 0.09 0.09 0.09 0.10 0.12 0.13 0.14 0.14 0.15 0.16 0.17 0.16 0.16 0.16
0.08 0.08 0.06 0.05 0.05 0.04 0.03 0.03 0.03 0.03 0.04 0.04 0.05 0.04 0.04 0.04 0.04 0.05 0.04 0.04 0.03 0.05 0.05 0.07 0.08 0.11 0.14 0.11 0.08 0.08 0.07 0.08 0.09 0.09 0.11 0.14 0.15 0.17 0.18 0.18 0.20 0.21 0.22 0.22
0.08 0.08 0.08 0.07 0.07 0.07 0.07 0.06 0.05 0.05 0.06 0.06 0.06 0.06 0.07 0.07 0.08 0.08 0.08 0.07 0.07 0.08 0.07 0.09 0.11 0.15 0.17 0.10 0.09 0.09 0.09 0.09 0.10 0.11 0.12 0.14 0.15 0.17 0.20 0.21 0.22 0.23 0.25 0.28
0.08 0.07 0.08 0.08 0.08 0.08 0.08 0.08 0.06 0.06 0.06 0.06 0.07 0.07 0.07 0.08 0.10 0.11 0.11 0.11 0.12 0.13 0.14 0.15 0.17 0.20 0.17 0.14 0.13 0.14 0.14 0.14 0.16 0.17 0.16 0.17 0.19 0.21 0.23 0.26 0.28 0.30 0.31 0.33
0.09 0.08 0.07 0.08 0.08 0.08 0.08 0.08 0.09 0.08 0.08 0.07 0.07 0.07 0.08 0.09 0.10 0.12 0.14 0.15 0.16 0.18 0.19 0.20 0.21 0.21 0.20 0.20 0.20 0.20 0.21 0.21 0.20 0.20 0.20 0.21 0.22 0.24 0.25 0.28 0.32 0.36 0.38 0.39
0.10 0.08 0.07 0.09 0.09 0.09 0.09 0.09 0.10 0.10 0.11 0.10 0.09 0.09 0.09 0.09 0.09 0.10 0.12 0.14 0.16 0.19 0.22 0.23 0.24 0.24 0.23 0.23 0.24 0.25 0.24 0.24 0.24 0.25 0.26 0.27 0.29 0.30 0.30 0.32 0.35 0.38 0.40 0.42

GEFSNGP_prec_meanprecacc_174.txt.gz
Total_Precipitation_Accumulation
0.24 0.22 0.30 0.49 0.60 0.54 0.58 0.68 0.92 0.79 0.63 0.58 0.55 0.58 0.60 0.64 0.67 0.64 0.67 0.67 0.64 0.60 0.62 0.68 0.68 0.65 0.69 0.76 0.86 1.01 1.08 0.97 0.83 0.70 0.60 0.55 0.58 0.55 0.57 0.63 0.65 0.71 0.77 0.88
0.09 0.10 0.19 0.41 0.51 0.54 0.54 0.53 0.53 0.45 0.41 0.32 0.31 0.37 0.39 0.42 0.42 0.39 0.41 0.42 0.40 0.36 0.34 0.39 0.38 0.39 0.43 0.52 0.67 0.88 0.96 0.83 0.66 0.58 0.56 0.52 0.50 0.47 0.46 0.48 0.54 0.59 0.64 0.80
0.13 0.11 0.19 0.42 0.43 0.48 0.38 0.24 0.21 0.25 0.25 0.18 0.20 0.29 0.31 0.35 0.36 0.31 0.30 0.32 0.31 0.30 0.26 0.27 0.27 0.30 0.37 0.44 0.56 0.66 0.69 0.64 0.52 0.45 0.43 0.41 0.40 0.40 0.42 0.44 0.47 0.52 0.57 0.73
0.21 0.20 0.41 0.62 0.48 0.40 0.34 0.20 0.13 0.13 0.12 0.13 0.17 0.23 0.23 0.28 0.34 0.30 0.26 0.27 0.26 0.27 0.28 0.30 0.34 0.36 0.45 0.49 0.49 0.52 0.59 0.59 0.50 0.42 0.39 0.38 0.36 0.37 0.45 0.46 0.44 0.49 0.55 0.59
0.30 0.31 0.42 0.49 0.33 0.29 0.37 0.36 0.15 0.11 0.11 0.11 0.13 0.17 0.16 0.18 0.22 0.22 0.19 0.17 0.17 0.17 0.17 0.19 0.21 0.25 0.27 0.28 0.29 0.32 0.36 0.41 0.38 0.32 0.34 0.37 0.36 0.40 0.44 0.44 0.48 0.51 0.55 0.58
0.36 0.36 0.47 0.39 0.18 0.14 0.27 0.48 0.20 0.08 0.07 0.05 0.07 0.11 0.09 0.08 0.09 0.10 0.10 0.08 0.07 0.07 0.08 0.08 0.08 0.12 0.15 0.12 0.10 0.11 0.13 0.19 0.21 0.21 0.24 0.31 0.40 0.46 0.44 0.42 0.47 0.49 0.48 0.48
0.46 0.57 0.71 0.49 0.23 0.16 0.35 0.46 0.18 0.06 0.03 0.03 0.03 0.03 0.04 0.05 0.07 0.05 0.05 0.05 0.04 0.04 0.05 0.06 0.06 0.07 0.10 0.08 0.05 0.05 0.06 0.08 0.09 0.13 0.19 0.28 0.35 0.34 0.35 0.37 0.41 0.42 0.45 0.44
0.63 0.82 0.99 0.64 0.41 0.36 0.31 0.18 0.08 0.03 0.02 0.02 0.02 0.02 0.03 0.06 0.06 0.05 0.05 0.04 0.03 0.03 0.05 0.05 0.04 0.04 0.06 0.06 0.04 0.04 0.04 0.05 0.05 0.06 0.09 0.14 0.21 0.24 0.27 0.31 0.33 0.33 0.33 0.34
0.68 0.72 0.66 0.49 0.38 0.26 0.19 0.12 0.04 0.02 0.02 0.02 0.01 0.01 0.02 0.03 0.04 0.04 0.02 0.02 0.03 0.04 0.04 0.04 0.03 0.03 0.03 0.05 0.06 0.05 0.03 0.03 0.03 0.03 0.04 0.07 0.13 0.18 0.22 0.28 0.30 0.29 0.27 0.29
0.26 0.29 0.27 0.22 0.18 0.13 0.09 0.06 0.02 0.02 0.02 0.02 0.02 0.01 0.02 0.02 0.03 0.03 0.02 0.02 0.04 0.05 0.05 0.04 0.03 0.04 0.04 0.05 0.06 0.05 0.04 0.03 0.03 0.03 0.04 0.05 0.07 0.14 0.22 0.25 0.24 0.24 0.27 0.29
0.11 0.11 0.11 0.11 0.10 0.09 0.06 0.03 0.02 0.01 0.02 0.03 0.02 0.02 0.02 0.03 0.04 0.04 0.02 0.02 0.03 0.04 0.05 0.05 0.04 0.03 0.04 0.04 0.04 0.05 0.04 0.03 0.03 0.03 0.03 0.03 0.03 0.07 0.14 0.17 0.16 0.19 0.24 0.29
0.08 0.06 0.06 0.08 0.06 0.05 0.05 0.03 0.03 0.02 0.02 0.02 0.02 0.02 0.03 0.03 0.02 0.03 0.03 0.02 0.02 0.03 0.04 0.06 0.06 0.04 0.04 0.05 0.04 0.05 0.05 0.03 0.03 0.03 0.04 0.04 0.04 0.05 0.07 0.08 0.10 0.10 0.11 0.16
0.06 0.04 0.04 0.05 0.04 0.04 0.04 0.04 0.04 0.03 0.03 0.04 0.03 0.03 0.02 0.02 0.03 0.03 0.04 0.03 0.02 0.02 0.04 0.05 0.05 0.05 0.05 0.06 0.06 0.05 0.05 0.04 0.03 0.03 0.03 0.04 0.04 0.07 0.08 0.05 0.03 0.03 0.04 0.06
0.04 0.03 0.03 0.04 0.04 0.04 0.04 0.04 0.05 0.05 0.06 0.06 0.04 0.03 0.03 0.02 0.02 0.02 0.03 0.03 0.03 0.03 0.05 0.06 0.05 0.05 0.06 0.07 0.07 0.06 0.06 0.06 0.04 0.04 0.04 0.05 0.06 0.09 0.15 0.18 0.13 0.06 0.04 0.04
0.05 0.04 0.05 0.05 0.04 0.04 0.04 0.04 0.05 0.05 0.06 0.06 0.04 0.03 0.02 0.02 0.03 0.04 0.03 0.04 0.04 0.04 0.05 0.05 0.05 0.06 0.06 0.06 0.06 0.06 0.07 0.07 0.06 0.08 0.08 0.08 0.10 0.14 0.16 0.16 0.12 0.08 0.06 0.05
0.08 0.05 0.05 0.06 0.05 0.05 0.04 0.04 0.05 0.04 0.05 0.06 0.03 0.02 0.01 0.02 0.03 0.07 0.05 0.03 0.04 0.04 0.04 0.04 0.04 0.05 0.05 0.05 0.05 0.05 0.06 0.07 0.07 0.08 0.09 0.08 0.08 0.10 0.12 0.12 0.09 0.08 0.08 0.08
0.07 0.08 0.07 0.06 0.06 0.06 0.05 0.05 0.05 0.04 0.03 0.04 0.04 0.02 0.01 0.01 0.03 0.06 0.06 0.04 0.04 0.03 0.03 0.04 0.05 0.05 0.05 0.04 0.04 0.04 0.05 0.05 0.06 0.07 0.09 0.08 0.08 0.06 0.07 0.09 0.08 0.07 0.07 0.07
0.05 0.06 0.06 0.06 0.06 0.07 0.06 0.06 0.05 0.04 0.03 0.03 0.02 0.02 0.02 0.02 0.03 0.05 0.06 0.04 0.05 0.04 0.04 0.04 0.04 0.04 0.05 0.05 0.04 0.04 0.04 0.04 0.05 0.07 0.10 0.10 0.09 0.08 0.08 0.09 0.08 0.08 0.08 0.08
0.04 0.03 0.03 0.03 0.04 0.05 0.06 0.06 0.06 0.05 0.03 0.02 0.02 0.02 0.02 0.02 0.03 0.04 0.05 0.06 0.07 0.07 0.06 0.05 0.06 0.05 0.05 0.05 0.05 0.04 0.04 0.04 0.05 0.07 0.10 0.09 0.09 0.09 0.09 0.10 0.10 0.09 0.09 0.09
0.06 0.05 0.05 0.04 0.03 0.03 0.03 0.04 0.05 0.06 0.05 0.04 0.03 0.03 0.03 0.03 0.02 0.03 0.04 0.05 0.07 0.07 0.07 0.09 0.10 0.10 0.08 0.07 0.08 0.07 0.06 0.08 0.09 0.11 0.11 0.10 0.10 0.11 0.11 0.10 0.11 0.10 0.11 0.12
0.06 0.06 0.05 0.04 0.03 0.03 0.02 0.03 0.03 0.04 0.05 0.05 0.05 0.05 0.04 0.03 0.02 0.02 0.02 0.03 0.04 0.05 0.06 0.09 0.12 0.14 0.14 0.13 0.12 0.10 0.10 0.11 0.12 0.13 0.12 0.12 0.11 0.11 0.12 0.12 0.12 0.13 0.14 0.14
0.07 0.05 0.04 0.03 0.03 0.02 0.02 0.02 0.02 0.03 0.03 0.05 0.06 0.06 0.05 0.04 0.03 0.02 0.02 0.03 0.03 0.05 0.06 0.09 0.10 0.13 0.17 0.18 0.13 0.12 0.12 0.12 0.12 0.12 0.13 0.14 0.15 0.15 0.16 0.17 0.17 0.17 0.16 0.17
0.08 0.08 0.06 0.05 0.05 0.04 0.03 0.03 0.03 0.03 0.04 0.05 0.05 0.04 0.04 0.05 0.05 0.05 0.05 0.04 0.04 0.05 0.06 0.07 0.09 0.13 0.20 0.16 0.11 0.09 0.09 0.10 0.11 0.11 0.12 0.15 0.17 0.19 0.19 0.20 0.21 0.21 0.23 0.23
0.08 0.09 0.08 0.07 0.07 0.07 0.07 0.06 0.05 0.06 0.06 0.06 0.07 0.07 0.07 0.08 0.09 0.09 0.08 0.08 0.08 0.09 0.08 0.09 0.12 0.18 0.21 0.15 0.12 0.11 0.11 0.12 0.12 0.13 0.14 0.16 0.18 0.19 0.22 0.23 0.24 0.24 0.26 0.29
0.08 0.07 0.08 0.08 0.08 0.08 0.08 0.08 0.07 0.07 0.07 0.07 0.08 0.09 0.09 0.09 0.11 0.12 0.12 0.12 0.13 0.15 0.15 0.16 0.19 0.22 0.20 0.17 0.17 0.17 0.17 0.18 0.19 0.20 0.19 0.20 0.21 0.23 0.25 0.27 0.29 0.30 0.31 0.33
0.09 0.08 0.08 0.08 0.08 0.08 0.08 0.08 0.09 0.09 0.09 0.09 0.09 0.10 0.10 0.11 0.12 0.14 0.16 0.16 0.17 0.19 0.20 0.21 0.22 0.23 0.23 0.23 0.23 0.24 0.25 0.25 0.24 0.23 0.22 0.23 0.25 0.26 0.27 0.30 0.33 0.37 0.39 0.39
0.10 0.08 0.08 0.09 0.09 0.09 0.09 0.10 0.11 0.11 0.12 0.13 0.12 0.12 0.11 0.11 0.12 0.13 0.14 0.16 0.18 0.20 0.22 0.24 0.25 0.25 0.25 0.25 0.26 0.26 0.26 0.27 0.27 0.27 0.28 0.29 0.30 0.31 0.31 0.32 0.36 0.39 0.41 0.44

GEFSNGP_prec_meanprecacc_180.txt.gz
Total_Precipitation_Accumulation
0.24 0.23 0.31 0.50 0.61 0.55 0.58 0.68 0.92 0.79 0.64 0.58 0.55 0.58 0.60 0.65 0.68 0.65 0.68 0.68 0.65 0.61 0.62 0.68 0.69 0.66 0.71 0.79 0.89 1.03 1.10 0.99 0.84 0.71 0.60 0.56 0.58 0.55 0.59 0.65 0.67 0.72 0.77 0.88
0.10 0.11 0.20 0.42 0.52 0.55 0.54 0.53 0.53 0.45 0.42 0.32 0.31 0.37 0.39 0.42 0.42 0.40 0.42 0.43 0.41 0.37 0.35 0.39 0.38 0.41 0.45 0.54 0.69 0.90 0.98 0.85 0.68 0.60 0.57 0.52 0.51 0.48 0.47 0.50 0.56 0.60 0.65 0.81
0.14 0.12 0.19 0.42 0.43 0.49 0.38 0.24 0.21 0.25 0.26 0.18 0.20 0.29 0.31 0.36 0.36 0.31 0.31 0.33 0.32 0.31 0.27 0.27 0.28 0.31 0.39 0.45 0.58 0.68 0.71 0.66 0.53 0.47 0.44 0.42 0.41 0.41 0.42 0.44 0.48 0.54 0.57 0.73
0.24 0.23 0.42 0.62 0.48 0.40 0.34 0.20 0.13 0.13 0.12 0.13 0.17 0.23 0.23 0.28 0.34 0.30 0.26 0.28 0.27 0.28 0.28 0.30 0.34 0.37 0.47 0.51 0.51 0.54 0.61 0.62 0.52 0.45 0.41 0.39 0.37 0.37 0.45 0.46 0.45 0.50 0.55 0.59
0.32 0.34 0.44 0.49 0.33 0.29 0.37 0.36 0.15 0.11 0.11 0.11 0.13 0.17 0.16 0.18 0.23 0.23 0.19 0.17 0.17 0.18 0.17 0.19 0.22 0.25 0.29 0.30 0.32 0.34 0.39 0.45 0.41 0.34 0.35 0.38 0.36 0.41 0.44 0.45 0.49 0.51 0.55 0.58
0.37 0.38 0.48 0.39 0.18 0.14 0.27 0.49 0.20 0.09 0.07 0.05 0.07 0.11 0.09 0.09 0.09 0.10 0.10 0.08 0.07 0.08 0.08 0.08 0.08 0.12 0.16 0.14 0.11 0.13 0.16 0.21 0.23 0.23 0.26 0.31 0.40 0.46 0.44 0.42 0.48 0.49 0.49 0.48
0.47 0.58 0.71 0.50 0.23 0.16 0.36 0.47 0.18 0.06 0.03 0.03 0.03 0.04 0.04 0.06 0.07 0.05 0.06 0.06 0.04 0.04 0.06 0.06 0.06 0.07 0.10 0.10 0.07 0.06 0.07 0.10 0.11 0.14 0.20 0.29 0.36 0.35 0.35 0.38 0.41 0.42 0.45 0.45
0.64 0.83 0.99 0.64 0.41 0.36 0.32 0.19 0.09 0.03 0.02 0.02 0.02 0.02 0.04 0.06 0.06 0.05 0.05 0.05 0.04 0.04 0.05 0.05 0.05 0.05 0.07 0.08 0.07 0.07 0.06 0.06 0.07 0.08 0.11 0.16 0.23 0.26 0.28 0.32 0.34 0.33 0.34 0.35
0.70 0.73 0.66 0.49 0.38 0.27 0.19 0.12 0.04 0.03 0.03 0.02 0.02 0.02 0.03 0.04 0.04 0.04 0.04 0.04 0.04 0.05 0.05 0.04 0.04 0.05 0.05 0.07 0.09 0.09 0.06 0.05 0.05 0.06 0.07 0.10 0.15 0.20 0.23 0.29 0.31 0.29 0.28 0.29
0.27 0.30 0.27 0.23 0.18 0.13 0.09 0.07 0.03 0.02 0.03 0.03 0.03 0.02 0.02 0.03 0.03 0.04 0.03 0.04 0.06 0.08 0.07 0.05 0.04 0.06 0.06 0.07 0.08 0.09 0.07 0.06 0.05 0.06 0.06 0.07 0.09 0.15 0.23 0.26 0.24 0.25 0.27 0.29
0.12 0.12 0.12 0.11 0.10 0.09 0.07 0.04 0.02 0.02 0.03 0.04 0.03 0.03 0.03 0.04 0.05 0.05 0.04 0.03 0.05 0.07 0.08 0.07 0.05 0.05 0.06 0.06 0.07 0.08 0.07 0.05 0.06 0.05 0.06 0.05 0.04 0.08 0.15 0.18 0.17 0.19 0.24 0.29
0.09 0.07 0.07 0.08 0.07 0.06 0.06 0.04 0.03 0.03 0.03 0.03 0.03 0.05 0.07 0.05 0.04 0.05 0.04 0.03 0.03 0.04 0.06 0.07 0.07 0.05 0.05 0.06 0.06 0.07 0.08 0.06 0.06 0.06 0.06 0.05 0.05 0.06 0.08 0.09 0.10 0.10 0.12 0.16
0.07 0.04 0.04 0.05 0.04 0.04 0.05 0.04 0.05 0.04 0.05 0.05 0.05 0.06 0.06 0.04 0.04 0.04 0.05 0.04 0.03 0.03 0.05 0.05 0.06 0.06 0.06 0.07 0.07 0.07 0.08 0.08 0.07 0.06 0.06 0.06 0.06 0.09 0.08 0.06 0.04 0.04 0.04 0.06
0.05 0.03 0.04 0.05 0.04 0.04 0.04 0.05 0.05 0.06 0.07 0.07 0.06 0.05 0.04 0.03 0.03 0.03 0.04 0.04 0.04 0.04 0.06 0.06 0.06 0.06 0.07 0.09 0.08 0.08 0.10 0.11 0.09 0.07 0.07 0.08 0.09 0.12 0.17 0.19 0.14 0.06 0.04 0.04
0.05 0.05 0.05 0.06 0.05 0.05 0.04 0.05 0.05 0.06 0.07 0.07 0.06 0.05 0.03 0.03 0.04 0.05 0.04 0.04 0.05 0.05 0.05 0.06 0.07 0.08 0.09 0.10 0.09 0.09 0.12 0.14 0.13 0.13 0.12 0.12 0.14 0.18 0.20 0.18 0.13 0.09 0.06 0.05
0.08 0.05 0.05 0.06 0.05 0.05 0.04 0.04 0.05 0.05 0.06 0.07 0.05 0.05 0.04 0.03 0.05 0.07 0.05 0.04 0.04 0.04 0.04 0.05 0.05 0.06 0.07 0.08 0.08 0.09 0.09 0.12 0.13 0.16 0.15 0.12 0.12 0.15 0.17 0.15 0.11 0.09 0.09 0.08
0.07 0.08 0.07 0.06 0.06 0.06 0.05 0.05 0.05 0.04 0.04 0.05 0.05 0.06 0.05 0.03 0.04 0.07 0.07 0.05 0.04 0.04 0.04 0.04 0.06 0.06 0.06 0.05 0.05 0.06 0.07 0.08 0.09 0.12 0.15 0.14 0.12 0.10 0.11 0.13 0.10 0.09 0.08 0.07
0.05 0.06 0.06 0.06 0.06 0.07 0.06 0.06 0.05 0.04 0.03 0.04 0.04 0.04 0.05 0.04 0.04 0.05 0.06 0.05 0.05 0.05 0.05 0.05 0.05 0.06 0.06 0.05 0.05 0.05 0.05 0.06 0.07 0.09 0.13 0.14 0.13 0.12 0.12 0.12 0.11 0.09 0.09 0.09
0.04 0.04 0.03 0.03 0.04 0.05 0.06 0.06 0.06 0.05 0.04 0.03 0.03 0.03 0.04 0.05 0.05 0.06 0.06 0.06 0.07 0.08 0.07 0.06 0.07 0.06 0.06 0.06 0.06 0.05 0.05 0.05 0.06 0.08 0.11 0.11 0.11 0.11 0.11 0.12 0.12 0.11 0.10 0.10
0.06 0.06 0.05 0.04 0.03 0.03 0.03 0.04 0.05 0.06 0.05 0.04 0.03 0.03 0.04 0.04 0.04 0.04 0.04 0.05 0.07 0.08 0.08 0.09 0.10 0.11 0.09 0.08 0.09 0.07 0.07 0.09 0.10 0.12 0.12 0.11 0.11 0.12 0.12 0.11 0.12 0.12 0.12 0.13
0.07 0.06 0.05 0.04 0.03 0.03 0.02 0.03 0.03 0.04 0.05 0.05 0.05 0.05 0.05 0.04 0.04 0.03 0.03 0.03 0.04 0.05 0.06 0.09 0.12 0.15 0.15 0.15 0.14 0.11 0.11 0.13 0.13 0.14 0.13 0.13 0.12 0.12 0.12 0.12 0.13 0.14 0.15 0.15
0.07 0.05 0.04 0.03 0.03 0.02 0.02 0.02 0.02 0.03 0.03 0.05 0.06 0.06 0.05 0.04 0.03 0.03 0.03 0.03 0.04 0.05 0.06 0.09 0.10 0.13 0.18 0.19 0.15 0.13 0.13 0.13 0.13 0.13 0.14 0.15 0.16 0.16 0.16 0.17 0.18 0.18 0.17 0.18
0.08 0.08 0.06 0.05 0.05 0.04 0.03 0.03 0.03 0.03 0.04 0.05 0.05 0.05 0.05 0.05 0.05 0.06 0.05 0.05 0.04 0.06 0.06 0.08 0.10 0.14 0.20 0.16 0.12 0.11 0.11 0.11 0.12 0.13 0.14 0.16 0.18 0.20 0.20 0.21 0.21 0.22 0.24 0.25
0.08 0.09 0.09 0.08 0.07 0.07 0.07 0.06 0.05 0.06 0.06 0.06 0.07 0.07 0.08 0.08 0.10 0.10 0.09 0.08 0.09 0.09 0.09 0.11 0.14 0.19 0.22 0.16 0.14 0.13 0.13 0.13 0.14 0.16 0.17 0.18 0.20 0.21 0.23 0.25 0.25 0.25 0.27 0.30
0.08 0.08 0.08 0.08 0.08 0.08 0.09 0.08 0.07 0.07 0.07 0.07 0.08 0.09 0.09 0.10 0.12 0.13 0.13 0.12 0.14 0.16 0.16 0.18 0.21 0.24 0.22 0.20 0.20 0.20 0.19 0.19 0.21 0.22 0.22 0.23 0.24 0.26 0.27 0.30 0.31 0.32 0.32 0.34
0.10 0.08 0.08 0.08 0.08 0.08 0.08 0.09 0.09 0.09 0.10 0.09 0.09 0.10 0.11 0.12 0.14 0.16 0.17 0.18 0.19 0.21 0.21 0.22 0.24 0.25 0.25 0.27 0.29 0.29 0.29 0.27 0.26 0.25 0.25 0.27 0.28 0.29 0.30 0.32 0.35 0.38 0.40 0.40
0.10 0.08 0.08 0.09 0.09 0.09 0.09 0.10 0.11 0.11 0.12 0.13 0.13 0.13 0.13 0.13 0.15 0.16 0.17 0.18 0.20 0.22 0.24 0.26 0.27 0.27 0.26 0.27 0.30 0.32 0.33 0.31 0.31 0.31 0.31 0.33 0.34 0.35 0.34 0.35 0.37 0.40 0.42 0.44

GEFSNGP_prec_meanprecacc_186.txt.gz
Total_Precipitation_Accumulation
0.26 0.24 0.32 0.51 0.61 0.55 0.58 0.68 0.93 0.81 0.65 0.59 0.55 0.58 0.60 0.65 0.68 0.65 0.69 0.68 0.65 0.63 0.64 0.70 0.70 0.67 0.73 0.81 0.90 1.04 1.11 1.00 0.86 0.74 0.62 0.57 0.59 0.57 0.61 0.67 0.68 0.73 0.79 0.89
0.11 0.12 0.21 0.44 0.53 0.55 0.55 0.53 0.54 0.45 0.42 0.33 0.32 0.38 0.39 0.43 0.43 0.41 0.43 0.44 0.42 0.38 0.37 0.42 0.40 0.42 0.46 0.56 0.72 0.92 0.99 0.86 0.70 0.62 0.59 0.54 0.52 0.49 0.48 0.51 0.57 0.61 0.66 0.81
0.16 0.13 0.21 0.44 0.44 0.49 0.38 0.25 0.22 0.25 0.26 0.19 0.21 0.29 0.31 0.36 0.37 0.32 0.32 0.33 0.33 0.32 0.29 0.31 0.30 0.32 0.40 0.47 0.60 0.70 0.72 0.67 0.55 0.49 0.46 0.44 0.42 0.42 0.44 0.46 0.49 0.54 0.58 0.74
0.26 0.25 0.46 0.63 0.48 0.41 0.34 0.20 0.13 0.13 0.12 0.13 0.18 0.23 0.23 0.28 0.35 0.31 0.27 0.28 0.28 0.29 0.29 0.32 0.37 0.39 0.48 0.53 0.52 0.55 0.62 0.63 0.53 0.46 0.43 0.41 0.38 0.38 0.46 0.47 0.46 0.51 0.57 0.60
0.35 0.38 0.46 0.50 0.34 0.30 0.38 0.36 0.15 0.11 0.11 0.11 0.13 0.18 0.16 0.18 0.23 0.23 0.19 0.17 0.17 0.18 0.18 0.20 0.23 0.27 0.30 0.32 0.34 0.35 0.40 0.46 0.42 0.35 0.37 0.40 0.38 0.41 0.45 0.46 0.50 0.52 0.56 0.59
0.40 0.42 0.52 0.41 0.19 0.15 0.28 0.49 0.21 0.09 0.07 0.06 0.07 0.12 0.10 0.09 0.10 0.10 0.10 0.08 0.07 0.08 0.09 0.08 0.08 0.13 0.17 0.15 0.13 0.14 0.17 0.23 0.25 0.24 0.27 0.34 0.42 0.47 0.45 0.43 0.48 0.50 0.49 0.49
0.49 0.61 0.73 0.51 0.24 0.17 0.37 0.48 0.19 0.06 0.03 0.03 0.03 0.04 0.04 0.06 0.07 0.06 0.06 0.06 0.05 0.05 0.06 0.06 0.06 0.07 0.11 0.11 0.08 0.08 0.09 0.11 0.13 0.17 0.23 0.33 0.39 0.36 0.36 0.38 0.42 0.43 0.46 0.45
0.66 0.86 1.02 0.66 0.42 0.37 0.33 0.19 0.09 0.04 0.02 0.03 0.03 0.03 0.04 0.06 0.07 0.06 0.05 0.05 0.04 0.05 0.06 0.06 0.05 0.05 0.07 0.08 0.08 0.09 0.08 0.08 0.09 0.11 0.14 0.19 0.26 0.29 0.30 0.33 0.35 0.34 0.35 0.35
0.71 0.75 0.68 0.50 0.40 0.28 0.20 0.13 0.04 0.03 0.03 0.02 0.02 0.02 0.03 0.04 0.04 0.04 0.04 0.04 0.05 0.06 0.06 0.05 0.05 0.05 0.05 0.07 0.10 0.11 0.08 0.07 0.07 0.08 0.10 0.13 0.19 0.23 0.26 0.30 0.32 0.31 0.29 0.31
0.27 0.30 0.28 0.23 0.19 0.14 0.10 0.07 0.03 0.03 0.03 0.03 0.03 0.02 0.03 0.03 0.04 0.05 0.04 0.04 0.06 0.09 0.08 0.07 0.05 0.07 0.07 0.08 0.09 0.11 0.09 0.08 0.08 0.09 0.09 0.10 0.13 0.19 0.27 0.28 0.25 0.26 0.28 0.31
0.13 0.13 0.12 0.12 0.10 0.09 0.07 0.04 0.02 0.02 0.03 0.04 0.04 0.04 0.03 0.05 0.07 0.07 0.04 0.04 0.06 0.08 0.10 0.08 0.07 0.06 0.07 0.07 0.08 0.09 0.08 0.07 0.08 0.08 0.09 0.08 0.08 0.11 0.18 0.20 0.19 0.21 0.25 0.30
0.11 0.08 0.08 0.09 0.07 0.06 0.06 0.04 0.03 0.03 0.03 0.04 0.04 0.05 0.07 0.06 0.08 0.09 0.06 0.04 0.04 0.05 0.07 0.09 0.08 0.07 0.07 0.08 0.08 0.08 0.09 0.08 0.08 0.08 0.09 0.08 0.07 0.08 0.10 0.11 0.12 0.11 0.13 0.17
0.07 0.04 0.04 0.06 0.04 0.04 0.05 0.05 0.05 0.05 0.05 0.06 0.06 0.08 0.07 0.06 0.08 0.09 0.09 0.07 0.06 0.04 0.06 0.07 0.09 0.09 0.09 0.10 0.10 0.10 0.10 0.10 0.09 0.09 0.08 0.08 0.08 0.10 0.10 0.08 0.05 0.05 0.05 0.07
0.05 0.04 0.04 0.05 0.05 0.04 0.04 0.05 0.06 0.06 0.08 0.08 0.07 0.07 0.06 0.06 0.08 0.07 0.08 0.09 0.07 0.06 0.07 0.08 0.08 0.09 0.11 0.13 0.12 0.12 0.13 0.14 0.11 0.10 0.09 0.10 0.11 0.14 0.19 0.22 0.16 0.08 0.05 0.05
0.05 0.05 0.05 0.06 0.05 0.05 0.04 0.05 0.05 0.06 0.08 0.08 0.06 0.06 0.06 0.06 0.07 0.07 0.06 0.07 0.07 0.07 0.07 0.07 0.08 0.09 0.11 0.13 0.12 0.12 0.15 0.17 0.15 0.15 0.14 0.14 0.16 0.20 0.23 0.22 0.17 0.11 0.08 0.06
0.08 0.05 0.05 0.06 0.06 0.05 0.04 0.04 0.05 0.05 0.06 0.07 0.06 0.06 0.07 0.06 0.06 0.09 0.07 0.05 0.05 0.06 0.06 0.07 0.07 0.08 0.09 0.10 0.11 0.11 0.12 0.14 0.15 0.17 0.17 0.14 0.14 0.16 0.19 0.18 0.14 0.12 0.11 0.10
0.07 0.08 0.07 0.06 0.06 0.06 0.05 0.05 0.05 0.04 0.04 0.05 0.06 0.06 0.06 0.05 0.05 0.08 0.09 0.07 0.06 0.06 0.06 0.07 0.08 0.08 0.07 0.07 0.09 0.10 0.10 0.10 0.10 0.13 0.16 0.15 0.13 0.11 0.13 0.16 0.14 0.12 0.11 0.10
0.05 0.06 0.06 0.06 0.06 0.07 0.06 0.06 0.05 0.04 0.03 0.04 0.04 0.04 0.05 0.05 0.06 0.07 0.08 0.07 0.07 0.07 0.06 0.07 0.07 0.07 0.07 0.07 0.07 0.09 0.09 0.09 0.09 0.10 0.14 0.15 0.15 0.13 0.14 0.15 0.14 0.13 0.12 0.12
0.04 0.04 0.03 0.03 0.04 0.05 0.06 0.06 0.06 0.05 0.04 0.03 0.03 0.03 0.04 0.05 0.06 0.07 0.07 0.07 0.08 0.08 0.08 0.07 0.08 0.08 0.07 0.07 0.07 0.07 0.07 0.08 0.09 0.11 0.13 0.13 0.14 0.13 0.14 0.15 0.15 0.14 0.13 0.13
0.06 0.06 0.05 0.04 0.03 0.03 0.03 0.04 0.05 0.06 0.05 0.04 0.03 0.03 0.04 0.04 0.05 0.05 0.05 0.05 0.07 0.08 0.08 0.09 0.11 0.11 0.11 0.10 0.11 0.09 0.09 0.10 0.12 0.14 0.14 0.13 0.14 0.14 0.15 0.14 0.15 0.15 0.16 0.16
0.07 0.06 0.05 0.04 0.03 0.03 0.02 0.03 0.03 0.04 0.05 0.05 0.06 0.05 0.05 0.05 0.04 0.04 0.03 0.03 0.04 0.06 0.07 0.10 0.13 0.15 0.16 0.18 0.18 0.14 0.13 0.13 0.14 0.15 0.14 0.14 0.14 0.14 0.14 0.15 0.15 0.17 0.18 0.18
0.07 0.05 0.04 0.03 0.03 0.02 0.02 0.02 0.02 0.03 0.03 0.05 0.06 0.06 0.05 0.05 0.04 0.04 0.03 0.04 0.05 0.07 0.08 0.10 0.11 0.14 0.19 0.20 0.17 0.16 0.15 0.15 0.15 0.15 0.15 0.16 0.17 0.17 0.18 0.19 0.20 0.20 0.20 0.20
0.08 0.08 0.06 0.05 0.05 0.04 0.03 0.03 0.03 0.03 0.04 0.05 0.05 0.05 0.05 0.05 0.06 0.06 0.06 0.05 0.05 0.07 0.08 0.09 0.12 0.16 0.22 0.18 0.15 0.14 0.14 0.14 0.15 0.16 0.16 0.18 0.19 0.21 0.21 0.22 0.23 0.24 0.25 0.27
0.08 0.09 0.09 0.08 0.07 0.07 0.07 0.06 0.05 0.06 0.06 0.06 0.07 0.08 0.08 0.09 0.10 0.10 0.10 0.10 0.10 0.11 0.10 0.12 0.15 0.20 0.24 0.17 0.16 0.18 0.18 0.17 0.17 0.18 0.19 0.21 0.22 0.23 0.25 0.26 0.26 0.26 0.28 0.32
0.09 0.08 0.08 0.08 0.08 0.09 0.09 0.08 0.07 0.07 0.07 0.07 0.08 0.09 0.10 0.10 0.12 0.13 0.14 0.14 0.15 0.17 0.17 0.18 0.21 0.24 0.23 0.22 0.22 0.23 0.24 0.24 0.25 0.25 0.24 0.26 0.27 0.28 0.30 0.32 0.33 0.34 0.34 0.35
0.10 0.08 0.08 0.09 0.09 0.09 0.09 0.09 0.10 0.10 0.10 0.10 0.09 0.11 0.11 0.13 0.14 0.16 0.18 0.19 0.20 0.22 0.22 0.23 0.24 0.25 0.25 0.28 0.31 0.32 0.31 0.31 0.31 0.29 0.28 0.30 0.31 0.32 0.34 0.36 0.39 0.41 0.43 0.42
0.10 0.09 0.08 0.09 0.10 0.09 0.10 0.10 0.11 0.12 0.13 0.14 0.13 0.13 0.13 0.14 0.16 0.17 0.18 0.19 0.21 0.23 0.25 0.26 0.28 0.28 0.27 0.29 0.32 0.35 0.36 0.35 0.35 0.35 0.34 0.35 0.38 0.39 0.39 0.39 0.42 0.45 0.46 0.47

GEFSNGP_prec_meanprecacc_192.txt.gz
Total_Precipitation_Accumulation
0.26 0.25 0.33 0.51 0.62 0.56 0.60 0.70 0.94 0.82 0.67 0.62 0.57 0.60 0.62 0.66 0.70 0.70 0.74 0.72 0.68 0.66 0.67 0.72 0.73 0.69 0.74 0.82 0.91 1.05 1.12 1.01 0.88 0.75 0.65 0.60 0.63 0.60 0.64 0.70 0.70 0.74 0.80 0.89
0.12 0.12 0.21 0.44 0.54 0.55 0.55 0.55 0.55 0.46 0.44 0.36 0.34 0.40 0.41 0.44 0.44 0.43 0.47 0.47 0.45 0.41 0.42 0.47 0.43 0.44 0.48 0.57 0.73 0.92 1.01 0.89 0.73 0.65 0.63 0.57 0.55 0.52 0.52 0.55 0.59 0.63 0.67 0.82
0.17 0.14 0.22 0.44 0.45 0.50 0.38 0.25 0.22 0.26 0.27 0.20 0.23 0.31 0.32 0.37 0.38 0.33 0.33 0.35 0.36 0.36 0.35 0.38 0.35 0.36 0.44 0.50 0.62 0.72 0.75 0.70 0.59 0.53 0.49 0.46 0.44 0.45 0.47 0.48 0.51 0.56 0.60 0.75
0.27 0.27 0.48 0.64 0.49 0.42 0.36 0.21 0.14 0.14 0.13 0.14 0.19 0.25 0.24 0.30 0.36 0.31 0.28 0.30 0.30 0.31 0.34 0.38 0.42 0.43 0.51 0.56 0.56 0.60 0.66 0.66 0.56 0.48 0.44 0.42 0.39 0.41 0.49 0.49 0.48 0.53 0.58 0.61
0.36 0.39 0.48 0.51 0.35 0.32 0.40 0.38 0.16 0.12 0.11 0.12 0.14 0.19 0.17 0.19 0.24 0.23 0.20 0.18 0.18 0.19 0.20 0.24 0.29 0.33 0.35 0.35 0.37 0.39 0.44 0.49 0.45 0.37 0.38 0.42 0.40 0.44 0.48 0.48 0.52 0.54 0.57 0.59
0.42 0.44 0.53 0.42 0.20 0.16 0.30 0.52 0.22 0.10 0.07 0.06 0.07 0.13 0.11 0.10 0.10 0.11 0.11 0.09 0.08 0.09 0.09 0.09 0.12 0.19 0.21 0.19 0.17 0.17 0.20 0.26 0.28 0.26 0.30 0.36 0.45 0.50 0.48 0.45 0.50 0.52 0.51 0.49
0.51 0.63 0.74 0.52 0.25 0.18 0.40 0.52 0.21 0.07 0.04 0.04 0.04 0.04 0.05 0.07 0.08 0.06 0.07 0.06 0.06 0.06 0.07 0.07 0.08 0.11 0.13 0.12 0.10 0.10 0.11 0.13 0.16 0.20 0.25 0.34 0.41 0.39 0.38 0.40 0.43 0.44 0.47 0.46
0.68 0.88 1.03 0.67 0.43 0.38 0.35 0.22 0.11 0.05 0.03 0.04 0.04 0.04 0.05 0.07 0.07 0.06 0.06 0.06 0.05 0.06 0.06 0.07 0.07 0.07 0.08 0.09 0.09 0.10 0.09 0.09 0.11 0.13 0.16 0.20 0.28 0.32 0.33 0.35 0.35 0.35 0.36 0.36
0.72 0.76 0.69 0.50 0.40 0.30 0.21 0.14 0.06 0.04 0.04 0.03 0.03 0.03 0.04 0.04 0.05 0.05 0.04 0.05 0.05 0.07 0.07 0.07 0.07 0.06 0.07 0.08 0.11 0.12 0.10 0.08 0.09 0.11 0.12 0.15 0.21 0.26 0.30 0.33 0.34 0.32 0.30 0.31
0.28 0.31 0.28 0.23 0.19 0.15 0.11 0.08 0.03 0.03 0.03 0.04 0.03 0.03 0.04 0.04 0.04 0.05 0.04 0.05 0.06 0.10 0.10 0.09 0.08 0.09 0.10 0.10 0.11 0.13 0.11 0.10 0.10 0.12 0.12 0.12 0.16 0.23 0.31 0.31 0.27 0.27 0.29 0.31
0.13 0.13 0.13 0.12 0.11 0.10 0.08 0.04 0.03 0.02 0.03 0.04 0.04 0.04 0.04 0.05 0.08 0.08 0.05 0.04 0.06 0.09 0.11 0.11 0.10 0.10 0.11 0.11 0.11 0.11 0.10 0.10 0.10 0.11 0.12 0.11 0.11 0.14 0.20 0.23 0.21 0.23 0.27 0.31
0.11 0.08 0.08 0.09 0.07 0.06 0.06 0.04 0.04 0.03 0.03 0.04 0.04 0.06 0.08 0.07 0.09 0.11 0.07 0.05 0.05 0.06 0.08 0.10 0.10 0.10 0.10 0.12 0.12 0.12 0.12 0.12 0.12 0.11 0.12 0.10 0.10 0.11 0.13 0.13 0.14 0.14 0.15 0.19
0.08 0.05 0.05 0.06 0.05 0.05 0.05 0.05 0.05 0.05 0.05 0.06 0.06 0.08 0.08 0.08 0.11 0.12 0.10 0.09 0.08 0.06 0.07 0.07 0.10 0.11 0.10 0.12 0.12 0.14 0.14 0.14 0.12 0.12 0.11 0.09 0.10 0.12 0.13 0.10 0.07 0.07 0.07 0.08
0.05 0.04 0.04 0.05 0.05 0.05 0.05 0.05 0.06 0.07 0.08 0.08 0.08 0.08 0.07 0.08 0.10 0.09 0.10 0.13 0.11 0.09 0.09 0.09 0.09 0.10 0.12 0.14 0.14 0.15 0.17 0.18 0.14 0.12 0.12 0.12 0.13 0.15 0.20 0.24 0.18 0.09 0.07 0.07
0.06 0.05 0.06 0.06 0.06 0.05 0.04 0.05 0.06 0.06 0.08 0.08 0.07 0.07 0.07 0.08 0.10 0.10 0.10 0.10 0.10 0.10 0.09 0.09 0.09 0.10 0.12 0.14 0.14 0.15 0.19 0.21 0.19 0.20 0.17 0.15 0.17 0.22 0.24 0.23 0.18 0.13 0.10 0.08
0.08 0.06 0.06 0.06 0.06 0.05 0.04 0.04 0.05 0.05 0.07 0.08 0.06 0.07 0.08 0.08 0.10 0.12 0.10 0.07 0.07 0.08 0.08 0.09 0.09 0.09 0.10 0.11 0.12 0.13 0.15 0.19 0.21 0.22 0.20 0.17 0.16 0.17 0.19 0.19 0.16 0.15 0.14 0.12
0.07 0.08 0.07 0.07 0.07 0.06 0.05 0.05 0.06 0.04 0.04 0.05 0.06 0.07 0.07 0.07 0.07 0.11 0.12 0.09 0.08 0.07 0.08 0.09 0.10 0.09 0.09 0.09 0.10 0.11 0.12 0.13 0.14 0.16 0.18 0.17 0.16 0.13 0.14 0.17 0.15 0.14 0.13 0.12
0.05 0.06 0.06 0.07 0.07 0.07 0.06 0.06 0.06 0.04 0.04 0.04 0.04 0.04 0.06 0.06 0.07 0.09 0.12 0.12 0.11 0.09 0.08 0.09 0.09 0.09 0.08 0.09 0.09 0.10 0.10 0.10 0.10 0.12 0.16 0.18 0.17 0.15 0.15 0.16 0.15 0.14 0.14 0.14
0.04 0.04 0.03 0.04 0.04 0.05 0.06 0.06 0.07 0.06 0.04 0.03 0.03 0.03 0.05 0.06 0.07 0.08 0.10 0.11 0.13 0.14 0.12 0.11 0.11 0.10 0.09 0.10 0.09 0.09 0.09 0.09 0.11 0.13 0.15 0.15 0.16 0.16 0.15 0.16 0.16 0.15 0.14 0.14
0.06 0.06 0.05 0.04 0.03 0.03 0.03 0.05 0.06 0.06 0.05 0.04 0.04 0.04 0.04 0.05 0.05 0.06 0.06 0.07 0.09 0.11 0.11 0.13 0.13 0.13 0.13 0.12 0.13 0.11 0.11 0.13 0.15 0.17 0.17 0.16 0.16 0.16 0.17 0.15 0.16 0.16 0.16 0.17
0.07 0.06 0.05 0.05 0.04 0.03 0.03 0.03 0.03 0.04 0.05 0.06 0.06 0.06 0.05 0.05 0.05 0.04 0.04 0.04 0.05 0.07 0.08 0.11 0.13 0.16 0.17 0.19 0.19 0.16 0.15 0.16 0.16 0.17 0.17 0.17 0.16 0.16 0.16 0.16 0.17 0.19 0.20 0.19
0.08 0.05 0.04 0.04 0.03 0.03 0.02 0.02 0.02 0.03 0.03 0.05 0.07 0.06 0.05 0.05 0.04 0.04 0.04 0.05 0.06 0.08 0.08 0.10 0.11 0.15 0.20 0.22 0.18 0.16 0.16 0.16 0.16 0.16 0.17 0.18 0.19 0.20 0.20 0.21 0.21 0.21 0.21 0.21
0.09 0.08 0.07 0.06 0.05 0.04 0.04 0.03 0.03 0.03 0.04 0.05 0.05 0.05 0.05 0.06 0.06 0.07 0.07 0.06 0.07 0.09 0.09 0.10 0.13 0.17 0.23 0.19 0.15 0.15 0.15 0.15 0.15 0.16 0.18 0.20 0.22 0.23 0.24 0.23 0.23 0.25 0.27 0.29
0.09 0.09 0.09 0.08 0.07 0.07 0.07 0.06 0.06 0.06 0.06 0.06 0.07 0.08 0.08 0.09 0.10 0.10 0.11 0.11 0.12 0.13 0.11 0.13 0.16 0.21 0.24 0.17 0.16 0.18 0.18 0.18 0.18 0.19 0.21 0.23 0.23 0.24 0.27 0.27 0.27 0.27 0.30 0.34
0.09 0.08 0.09 0.09 0.09 0.09 0.09 0.09 0.07 0.07 0.07 0.07 0.08 0.10 0.10 0.10 0.12 0.14 0.14 0.14 0.17 0.19 0.18 0.20 0.22 0.25 0.24 0.22 0.22 0.23 0.24 0.24 0.26 0.27 0.26 0.28 0.29 0.30 0.31 0.33 0.35 0.35 0.34 0.36
0.10 0.09 0.08 0.09 0.09 0.09 0.09 0.10 0.10 0.10 0.10 0.10 0.10 0.11 0.12 0.13 0.15 0.17 0.19 0.20 0.21 0.23 0.23 0.24 0.25 0.26 0.25 0.28 0.32 0.33 0.32 0.32 0.32 0.31 0.29 0.31 0.33 0.34 0.35 0.37 0.40 0.43 0.44 0.43
0.11 0.09 0.08 0.10 0.10 0.10 0.11 0.11 0.12 0.13 0.14 0.14 0.14 0.14 0.13 0.14 0.16 0.18 0.19 0.20 0.22 0.25 0.26 0.28 0.29 0.29 0.28 0.29 0.32 0.35 0.37 0.36 0.36 0.37 0.36 0.37 0.39 0.41 0.40 0.40 0.44 0.47 0.48 0.49

GEFSNGP_prec_meanprecacc_198.txt.gz
Total_Precipitation_Accumulation
0.27 0.25 0.34 0.53 0.63 0.56 0.60 0.70 0.95 0.83 0.69 0.65 0.59 0.62 0.64 0.68 0.72 0.71 0.76 0.74 0.70 0.68 0.69 0.75 0.74 0.71 0.77 0.85 0.94 1.06 1.13 1.03 0.90 0.77 0.67 0.62 0.65 0.62 0.66 0.73 0.72 0.76 0.80 0.90
0.13 0.13 0.22 0.45 0.55 0.56 0.56 0.55 0.55 0.46 0.45 0.37 0.35 0.41 0.43 0.47 0.46 0.45 0.49 0.49 0.47 0.43 0.44 0.49 0.44 0.46 0.50 0.59 0.75 0.94 1.03 0.92 0.75 0.67 0.65 0.59 0.57 0.54 0.54 0.57 0.61 0.64 0.68 0.84
0.18 0.15 0.23 0.45 0.46 0.51 0.39 0.25 0.22 0.26 0.27 0.21 0.25 0.33 0.35 0.40 0.40 0.35 0.35 0.37 0.38 0.39 0.37 0.40 0.37 0.38 0.45 0.52 0.65 0.74 0.78 0.72 0.60 0.54 0.50 0.47 0.46 0.47 0.48 0.50 0.53 0.58 0.61 0.76
0.28 0.28 0.49 0.64 0.49 0.43 0.36 0.22 0.14 0.14 0.13 0.15 0.21 0.27 0.27 0.32 0.38 0.34 0.30 0.31 0.33 0.35 0.36 0.41 0.44 0.45 0.54 0.60 0.59 0.62 0.68 0.67 0.57 0.49 0.45 0.43 0.41 0.42 0.51 0.51 0.50 0.55 0.58 0.61
0.37 0.40 0.49 0.51 0.35 0.32 0.41 0.38 0.17 0.12 0.12 0.12 0.15 0.20 0.19 0.21 0.25 0.25 0.21 0.19 0.19 0.21 0.22 0.27 0.32 0.36 0.38 0.39 0.41 0.42 0.45 0.51 0.46 0.38 0.40 0.44 0.42 0.46 0.50 0.50 0.54 0.55 0.58 0.60
0.42 0.44 0.54 0.42 0.20 0.17 0.31 0.53 0.23 0.10 0.08 0.06 0.08 0.13 0.12 0.11 0.11 0.12 0.12 0.09 0.09 0.10 0.10 0.11 0.15 0.23 0.26 0.22 0.20 0.20 0.23 0.28 0.31 0.29 0.32 0.38 0.48 0.53 0.50 0.47 0.51 0.53 0.51 0.50
0.52 0.63 0.75 0.52 0.25 0.19 0.40 0.52 0.21 0.08 0.04 0.04 0.04 0.05 0.06 0.07 0.08 0.07 0.07 0.07 0.07 0.07 0.08 0.09 0.11 0.15 0.16 0.17 0.14 0.14 0.15 0.17 0.20 0.23 0.28 0.37 0.43 0.41 0.39 0.41 0.44 0.45 0.48 0.47
0.69 0.89 1.03 0.67 0.43 0.39 0.35 0.22 0.12 0.05 0.03 0.04 0.04 0.04 0.05 0.07 0.07 0.07 0.06 0.07 0.06 0.06 0.08 0.09 0.09 0.08 0.10 0.10 0.11 0.12 0.11 0.11 0.13 0.15 0.17 0.22 0.29 0.33 0.34 0.36 0.36 0.35 0.36 0.37
0.73 0.76 0.69 0.51 0.40 0.30 0.22 0.14 0.06 0.04 0.04 0.03 0.03 0.03 0.04 0.05 0.05 0.06 0.05 0.05 0.05 0.07 0.08 0.08 0.08 0.07 0.08 0.10 0.13 0.14 0.11 0.09 0.10 0.13 0.14 0.16 0.23 0.27 0.31 0.34 0.35 0.32 0.30 0.32
0.28 0.31 0.28 0.23 0.19 0.15 0.11 0.08 0.03 0.03 0.03 0.04 0.04 0.03 0.04 0.05 0.05 0.06 0.05 0.05 0.07 0.10 0.10 0.09 0.09 0.10 0.11 0.12 0.13 0.14 0.12 0.11 0.11 0.13 0.14 0.14 0.18 0.25 0.33 0.32 0.28 0.28 0.30 0.32
0.13 0.13 0.13 0.12 0.11 0.10 0.08 0.04 0.03 0.02 0.03 0.05 0.05 0.05 0.05 0.06 0.08 0.08 0.06 0.05 0.07 0.09 0.11 0.12 0.12 0.13 0.14 0.13 0.12 0.12 0.12 0.11 0.11 0.12 0.14 0.14 0.14 0.17 0.24 0.27 0.24 0.26 0.29 0.33
0.11 0.08 0.08 0.09 0.07 0.06 0.06 0.04 0.04 0.03 0.04 0.04 0.04 0.06 0.08 0.07 0.10 0.11 0.08 0.06 0.06 0.06 0.09 0.11 0.12 0.14 0.14 0.16 0.15 0.15 0.13 0.13 0.13 0.12 0.13 0.12 0.13 0.14 0.17 0.17 0.20 0.19 0.18 0.21
0.08 0.05 0.05 0.06 0.05 0.05 0.06 0.05 0.05 0.05 0.05 0.06 0.06 0.08 0.09 0.08 0.11 0.12 0.11 0.10 0.09 0.07 0.08 0.09 0.11 0.12 0.12 0.15 0.15 0.16 0.16 0.15 0.14 0.13 0.12 0.11 0.13 0.16 0.16 0.14 0.11 0.11 0.10 0.10
0.05 0.04 0.05 0.06 0.06 0.05 0.05 0.05 0.06 0.07 0.08 0.08 0.08 0.08 0.07 0.08 0.11 0.09 0.11 0.14 0.13 0.10 0.11 0.11 0.11 0.12 0.14 0.16 0.17 0.18 0.19 0.21 0.17 0.14 0.13 0.13 0.15 0.19 0.24 0.26 0.20 0.12 0.10 0.10
0.07 0.06 0.06 0.07 0.06 0.05 0.05 0.05 0.06 0.06 0.08 0.08 0.07 0.07 0.07 0.09 0.10 0.11 0.10 0.11 0.11 0.11 0.10 0.11 0.11 0.12 0.14 0.15 0.16 0.17 0.21 0.23 0.21 0.22 0.18 0.17 0.19 0.24 0.27 0.26 0.21 0.16 0.13 0.10
0.11 0.08 0.08 0.07 0.07 0.06 0.05 0.05 0.05 0.05 0.07 0.08 0.06 0.07 0.08 0.09 0.10 0.14 0.11 0.08 0.08 0.09 0.09 0.11 0.12 0.12 0.13 0.13 0.13 0.13 0.16 0.21 0.23 0.25 0.23 0.19 0.18 0.19 0.21 0.20 0.17 0.16 0.16 0.14
0.08 0.09 0.09 0.09 0.09 0.08 0.06 0.06 0.06 0.05 0.04 0.05 0.06 0.07 0.08 0.07 0.08 0.13 0.14 0.11 0.10 0.08 0.08 0.10 0.13 0.12 0.11 0.10 0.11 0.12 0.13 0.13 0.15 0.18 0.21 0.19 0.18 0.15 0.16 0.19 0.17 0.16 0.15 0.13
0.05 0.06 0.07 0.08 0.08 0.08 0.07 0.06 0.06 0.05 0.04 0.04 0.04 0.05 0.06 0.06 0.07 0.11 0.14 0.14 0.13 0.11 0.10 0.11 0.11 0.10 0.10 0.10 0.10 0.11 0.11 0.11 0.11 0.13 0.17 0.20 0.19 0.17 0.17 0.18 0.18 0.17 0.17 0.16
0.04 0.04 0.04 0.04 0.04 0.06 0.06 0.07 0.07 0.06 0.04 0.03 0.03 0.03 0.05 0.06 0.07 0.09 0.11 0.13 0.15 0.17 0.17 0.16 0.16 0.14 0.11 0.11 0.11 0.10 0.10 0.10 0.12 0.13 0.16 0.17 0.18 0.18 0.18 0.19 0.19 0.19 0.17 0.17
0.06 0.06 0.05 0.04 0.04 0.03 0.04 0.05 0.06 0.07 0.06 0.05 0.04 0.04 0.04 0.05 0.06 0.07 0.06 0.08 0.11 0.14 0.15 0.19 0.20 0.20 0.18 0.16 0.16 0.14 0.13 0.14 0.16 0.18 0.18 0.17 0.17 0.18 0.19 0.19 0.20 0.20 0.20 0.21
0.07 0.06 0.06 0.05 0.04 0.03 0.03 0.03 0.04 0.05 0.06 0.06 0.06 0.06 0.06 0.05 0.05 0.05 0.05 0.05 0.06 0.08 0.10 0.14 0.17 0.20 0.22 0.23 0.23 0.19 0.18 0.17 0.18 0.19 0.19 0.19 0.18 0.18 0.19 0.20 0.20 0.22 0.23 0.23
0.08 0.05 0.04 0.04 0.03 0.03 0.03 0.03 0.03 0.04 0.05 0.06 0.07 0.07 0.06 0.05 0.05 0.05 0.05 0.06 0.07 0.09 0.10 0.11 0.13 0.17 0.23 0.25 0.21 0.20 0.20 0.18 0.19 0.18 0.19 0.20 0.22 0.22 0.22 0.23 0.23 0.23 0.23 0.23
0.09 0.08 0.07 0.06 0.05 0.05 0.04 0.04 0.04 0.04 0.05 0.06 0.06 0.05 0.05 0.06 0.07 0.08 0.07 0.07 0.07 0.10 0.10 0.11 0.14 0.19 0.24 0.20 0.17 0.17 0.17 0.17 0.17 0.18 0.19 0.21 0.23 0.25 0.25 0.26 0.26 0.26 0.29 0.31
0.09 0.09 0.09 0.08 0.08 0.08 0.08 0.07 0.07 0.07 0.07 0.08 0.08 0.08 0.08 0.09 0.11 0.11 0.11 0.11 0.12 0.14 0.12 0.14 0.18 0.23 0.25 0.18 0.17 0.19 0.19 0.19 0.19 0.20 0.21 0.23 0.24 0.25 0.27 0.29 0.28 0.28 0.30 0.35
0.10 0.09 0.09 0.09 0.09 0.09 0.10 0.10 0.09 0.09 0.09 0.09 0.09 0.11 0.11 0.11 0.13 0.14 0.15 0.15 0.17 0.20 0.19 0.21 0.24 0.26 0.25 0.23 0.23 0.24 0.25 0.25 0.27 0.27 0.27 0.28 0.30 0.31 0.32 0.34 0.35 0.35 0.35 0.37
0.12 0.10 0.09 0.10 0.10 0.10 0.10 0.11 0.12 0.12 0.12 0.12 0.11 0.12 0.13 0.15 0.17 0.18 0.20 0.21 0.22 0.25 0.24 0.25 0.26 0.27 0.26 0.29 0.32 0.33 0.32 0.32 0.33 0.31 0.30 0.32 0.34 0.34 0.35 0.38 0.41 0.43 0.44 0.43
0.13 0.11 0.10 0.11 0.11 0.11 0.11 0.12 0.14 0.15 0.17 0.17 0.15 0.15 0.15 0.16 0.19 0.21 0.21 0.21 0.23 0.26 0.27 0.29 0.30 0.30 0.29 0.30 0.33 0.36 0.37 0.36 0.36 0.37 0.36 0.38 0.40 0.41 0.41 0.41 0.44 0.47 0.49 0.50